Wetterdaten: Dienstag, 12.04.2016
Datum Zeit Temp. Aussen Temp. o. S. +5cm Feuchte Auss BlattFeu 1 Luftdruck Regen Sonnenschein Regendauer Solar Windben Empfang
12.04.2016 00:00 15,1 C 14,4 C 12,8 C 64 % 0 lf 1008,9 hPa 0,0 l/m 0 min 2 min 0 W/m 4,2 km/h (1 Bft) 89,36 %
12.04.2016 00:02 15,0 C 14,4 C 12,2 C 64 % 2 lf 1008,9 hPa 0,0 l/m 0 min 2 min 0 W/m 10,5 km/h (2 Bft) 97,44 %
12.04.2016 00:06 14,9 C 14,4 C 12,2 C 65 % 0 lf 1009,0 hPa 0,0 l/m 0 min 2 min 0 W/m 8,4 km/h (2 Bft) 95,74 %
12.04.2016 00:08 14,9 C 14,4 C 12,2 C 65 % 0 lf 1009,0 hPa 0,0 l/m 0 min 0 min 0 W/m 8,4 km/h (2 Bft) 93,48 %
12.04.2016 00:10 14,9 C 14,4 C 12,2 C 65 % 0 lf 1009,0 hPa 0,0 l/m 0 min 0 min 0 W/m 8,4 km/h (2 Bft) 95,74 %
12.04.2016 00:12 14,9 C 14,4 C 12,2 C 65 % 0 lf 1009,0 hPa 0,0 l/m 0 min 0 min 0 W/m 8,4 km/h (2 Bft) 95,74 %
12.04.2016 00:14 14,8 C 14,4 C 12,2 C 66 % 0 lf 1009,1 hPa 0,0 l/m 0 min 0 min 0 W/m 6,3 km/h (2 Bft) 95,74 %
12.04.2016 00:16 14,8 C 14,4 C 12,2 C 65 % 0 lf 1009,0 hPa 0,0 l/m 0 min 0 min 0 W/m 4,2 km/h (1 Bft) 93,62 %
12.04.2016 00:18 14,8 C 14,4 C 12,2 C 65 % 1 lf 1009,1 hPa 0,0 l/m 0 min 0 min 0 W/m 6,3 km/h (2 Bft) 91,49 %
12.04.2016 00:20 14,8 C 13,9 C 12,2 C 66 % 0 lf 1009,3 hPa 0,0 l/m 0 min 2 min 0 W/m 10,5 km/h (2 Bft) 97,83 %
12.04.2016 00:22 14,7 C 13,9 C 12,2 C 66 % 8 lf 1009,4 hPa 0,0 l/m 0 min 2 min 0 W/m 8,4 km/h (2 Bft) 97,87 %
12.04.2016 00:24 14,7 C 13,9 C 11,7 C 67 % 13 lf 1009,3 hPa 0,0 l/m 0 min 2 min 0 W/m 8,4 km/h (2 Bft) 95,74 %
12.04.2016 00:26 14,7 C 13,9 C 11,7 C 67 % 13 lf 1009,3 hPa 0,0 l/m 0 min 2 min 0 W/m 4,2 km/h (1 Bft) 95,74 %
12.04.2016 00:28 14,7 C 13,3 C 11,7 C 67 % 15 lf 1009,2 hPa 0,0 l/m 0 min 2 min 0 W/m 4,2 km/h (1 Bft) 95,74 %
12.04.2016 00:30 14,7 C 13,3 C 11,1 C 67 % 14 lf 1009,2 hPa 0,0 l/m 0 min 2 min 0 W/m 8,4 km/h (2 Bft) 95,74 %
12.04.2016 00:32 14,6 C 13,3 C 11,1 C 68 % 14 lf 1009,2 hPa 0,0 l/m 0 min 2 min 0 W/m 6,3 km/h (2 Bft) 97,83 %
12.04.2016 00:34 14,6 C 13,3 C 11,1 C 68 % 14 lf 1009,1 hPa 0,0 l/m 0 min 2 min 0 W/m 2,1 km/h (1 Bft) 89,36 %
12.04.2016 00:36 14,6 C 13,3 C 11,1 C 69 % 13 lf 1009,0 hPa 0,0 l/m 0 min 2 min 0 W/m 4,2 km/h (1 Bft) 97,87 %
12.04.2016 00:38 14,5 C 13,3 C 11,1 C 69 % 12 lf 1009,0 hPa 0,0 l/m 0 min 2 min 0 W/m 4,2 km/h (1 Bft) 97,87 %
12.04.2016 00:40 14,5 C 13,3 C 11,1 C 69 % 10 lf 1009,0 hPa 0,0 l/m 0 min 0 min 0 W/m 2,1 km/h (1 Bft) 97,87 %
12.04.2016 00:42 14,5 C 13,3 C 11,1 C 69 % 4 lf 1009,0 hPa 0,0 l/m 0 min 0 min 0 W/m 0,0 km/h (0 Bft) 97,83 %
12.04.2016 00:44 14,4 C 13,3 C 11,1 C 69 % 2 lf 1009,1 hPa 0,0 l/m 0 min 0 min 0 W/m 4,2 km/h (1 Bft) 97,87 %
12.04.2016 00:46 14,4 C 13,3 C 11,1 C 69 % 0 lf 1009,1 hPa 0,0 l/m 0 min 0 min 0 W/m 4,2 km/h (1 Bft) 93,62 %
12.04.2016 00:48 14,4 C 13,3 C 11,1 C 70 % 0 lf 1009,1 hPa 0,0 l/m 0 min 0 min 0 W/m 0,0 km/h (0 Bft) 97,87 %
12.04.2016 00:50 14,4 C 13,3 C 11,1 C 70 % 2 lf 1009,1 hPa 0,0 l/m 0 min 2 min 0 W/m 2,1 km/h (1 Bft) 95,74 %
12.04.2016 00:52 14,3 C 13,3 C 11,1 C 70 % 2 lf 1009,1 hPa 0,0 l/m 0 min 2 min 0 W/m 2,1 km/h (1 Bft) 97,87 %
12.04.2016 00:54 14,3 C 13,3 C 11,1 C 71 % 1 lf 1009,1 hPa 0,0 l/m 0 min 2 min 0 W/m 0,0 km/h (0 Bft) 93,48 %
12.04.2016 00:56 14,3 C 12,8 C 10,6 C 71 % 4 lf 1009,0 hPa 0,0 l/m 0 min 2 min 0 W/m 0,0 km/h (0 Bft) 97,87 %
12.04.2016 00:58 14,2 C 12,8 C 10,6 C 71 % 9 lf 1009,0 hPa 0,0 l/m 0 min 2 min 0 W/m 0,0 km/h (0 Bft) 97,87 %
12.04.2016 01:00 14,2 C 12,8 C 10,6 C 71 % 15 lf 1009,0 hPa 0,0 l/m 0 min 2 min 0 W/m 0,0 km/h (0 Bft) 97,87 %
12.04.2016 01:02 14,2 C 12,2 C 10,6 C 72 % 15 lf 1009,1 hPa 0,0 l/m 0 min 2 min 0 W/m 4,2 km/h (1 Bft) 91,49 %
12.04.2016 01:04 14,2 C 12,2 C 10,0 C 72 % 15 lf 1009,1 hPa 0,0 l/m 0 min 2 min 0 W/m 4,2 km/h (1 Bft) 97,87 %
12.04.2016 01:06 14,2 C 11,7 C 10,0 C 73 % 15 lf 1009,2 hPa 0,0 l/m 0 min 2 min 0 W/m 4,2 km/h (1 Bft) 97,83 %
12.04.2016 01:08 14,2 C 11,7 C 10,0 C 73 % 15 lf 1009,3 hPa 0,0 l/m 0 min 2 min 0 W/m 6,3 km/h (2 Bft) 97,87 %
12.04.2016 01:10 14,2 C 11,7 C 10,0 C 74 % 15 lf 1009,4 hPa 0,0 l/m 0 min 2 min 0 W/m 6,3 km/h (2 Bft) 95,74 %
12.04.2016 01:12 14,2 C 11,7 C 10,0 C 74 % 15 lf 1009,5 hPa 0,0 l/m 0 min 2 min 0 W/m 6,3 km/h (2 Bft) 91,49 %
12.04.2016 01:14 14,1 C 11,7 C 10,0 C 74 % 15 lf 1009,4 hPa 0,0 l/m 0 min 2 min 0 W/m 4,2 km/h (1 Bft) 95,74 %
12.04.2016 01:16 14,1 C 11,7 C 10,0 C 75 % 15 lf 1009,4 hPa 0,0 l/m 0 min 2 min 0 W/m 6,3 km/h (2 Bft) 95,74 %
12.04.2016 01:18 14,0 C 11,7 C 10,0 C 75 % 15 lf 1009,5 hPa 0,0 l/m 0 min 2 min 0 W/m 2,1 km/h (1 Bft) 91,30 %
12.04.2016 01:20 13,9 C 11,7 C 10,0 C 75 % 15 lf 1009,5 hPa 0,0 l/m 0 min 2 min 0 W/m 4,2 km/h (1 Bft) 91,49 %
12.04.2016 01:22 13,9 C 11,1 C 10,0 C 75 % 15 lf 1009,5 hPa 0,0 l/m 0 min 2 min 0 W/m 2,1 km/h (1 Bft) 95,74 %
12.04.2016 01:24 13,9 C 11,7 C 10,0 C 76 % 15 lf 1009,5 hPa 0,0 l/m 0 min 2 min 0 W/m 4,2 km/h (1 Bft) 95,74 %
12.04.2016 01:26 13,8 C 11,7 C 10,0 C 76 % 15 lf 1009,4 hPa 0,0 l/m 0 min 2 min 0 W/m 6,3 km/h (2 Bft) 91,49 %
12.04.2016 01:28 13,8 C 11,7 C 10,0 C 76 % 15 lf 1009,3 hPa 0,0 l/m 0 min 2 min 0 W/m 6,3 km/h (2 Bft) 95,74 %
12.04.2016 01:30 13,7 C 11,7 C 10,0 C 77 % 15 lf 1009,3 hPa 0,0 l/m 0 min 2 min 0 W/m 6,3 km/h (2 Bft) 91,30 %
12.04.2016 01:32 13,7 C 11,7 C 10,0 C 77 % 15 lf 1009,3 hPa 0,2 l/m 0 min 2 min 0 W/m 6,3 km/h (2 Bft) 97,87 %
12.04.2016 01:34 13,7 C 11,7 C 10,0 C 77 % 15 lf 1009,2 hPa 0,0 l/m 0 min 2 min 0 W/m 6,3 km/h (2 Bft) 91,49 %
12.04.2016 01:36 13,6 C 11,7 C 10,0 C 78 % 15 lf 1009,2 hPa 0,0 l/m 0 min 2 min 0 W/m 6,3 km/h (2 Bft) 95,74 %
12.04.2016 01:38 13,6 C 11,7 C 10,0 C 79 % 15 lf 1009,3 hPa 0,0 l/m 0 min 2 min 0 W/m 6,3 km/h (2 Bft) 95,74 %
12.04.2016 01:40 13,6 C 11,7 C 10,0 C 79 % 15 lf 1009,3 hPa 0,0 l/m 0 min 2 min 0 W/m 6,3 km/h (2 Bft) 95,65 %
12.04.2016 01:42 13,5 C 11,7 C 10,0 C 79 % 14 lf 1009,3 hPa 0,0 l/m 0 min 2 min 0 W/m 4,2 km/h (1 Bft) 89,36 %
12.04.2016 01:44 13,4 C 11,1 C 10,0 C 79 % 13 lf 1009,2 hPa 0,0 l/m 0 min 2 min 0 W/m 6,3 km/h (2 Bft) 91,49 %
12.04.2016 01:46 13,4 C 11,1 C 10,0 C 80 % 13 lf 1009,3 hPa 0,0 l/m 0 min 2 min 0 W/m 6,3 km/h (2 Bft) 95,74 %
12.04.2016 01:48 13,4 C 11,1 C 10,0 C 80 % 14 lf 1009,3 hPa 0,0 l/m 0 min 2 min 0 W/m 6,3 km/h (2 Bft) 93,62 %
12.04.2016 01:50 13,4 C 11,1 C 10,0 C 81 % 14 lf 1009,5 hPa 0,0 l/m 0 min 2 min 0 W/m 6,3 km/h (2 Bft) 95,74 %
12.04.2016 01:52 13,3 C 11,1 C 10,0 C 81 % 15 lf 1009,6 hPa 0,0 l/m 0 min 2 min 0 W/m 6,3 km/h (2 Bft) 93,62 %
12.04.2016 01:54 13,3 C 11,1 C 10,0 C 81 % 15 lf 1009,6 hPa 0,0 l/m 0 min 2 min 0 W/m 6,3 km/h (2 Bft) 95,65 %
12.04.2016 01:56 13,2 C 10,6 C 9,4 C 81 % 15 lf 1009,5 hPa 0,0 l/m 0 min 2 min 0 W/m 4,2 km/h (1 Bft) 91,49 %
12.04.2016 01:58 13,2 C 10,6 C 9,4 C 82 % 15 lf 1009,2 hPa 0,2 l/m 0 min 2 min 0 W/m 6,3 km/h (2 Bft) 95,74 %
12.04.2016 02:00 13,2 C 10,6 C 9,4 C 82 % 15 lf 1009,0 hPa 0,2 l/m 0 min 2 min 0 W/m 8,4 km/h (2 Bft) 95,74 %
12.04.2016 02:02 13,1 C 10,6 C 9,4 C 83 % 15 lf 1008,9 hPa 0,0 l/m 0 min 2 min 0 W/m 8,4 km/h (2 Bft) 93,62 %
12.04.2016 02:04 13,1 C 11,1 C 10,0 C 83 % 15 lf 1009,0 hPa 0,0 l/m 0 min 2 min 0 W/m 8,4 km/h (2 Bft) 97,87 %
12.04.2016 02:06 13,0 C 11,1 C 10,0 C 83 % 15 lf 1008,9 hPa 0,0 l/m 0 min 2 min 0 W/m 4,2 km/h (1 Bft) 93,48 %
12.04.2016 02:08 13,0 C 11,1 C 10,0 C 83 % 15 lf 1008,9 hPa 0,0 l/m 0 min 2 min 0 W/m 6,3 km/h (2 Bft) 95,74 %
12.04.2016 02:10 12,9 C 10,6 C 10,0 C 84 % 15 lf 1008,9 hPa 0,2 l/m 0 min 2 min 0 W/m 10,5 km/h (2 Bft) 97,87 %
12.04.2016 02:12 12,9 C 10,6 C 10,0 C 84 % 15 lf 1009,0 hPa 0,0 l/m 0 min 2 min 0 W/m 10,5 km/h (2 Bft) 97,87 %
12.04.2016 02:14 12,9 C 10,6 C 9,4 C 84 % 15 lf 1009,0 hPa 0,0 l/m 0 min 2 min 0 W/m 14,6 km/h (3 Bft) 100,00 %
12.04.2016 02:16 12,8 C 11,1 C 9,4 C 85 % 15 lf 1009,1 hPa 0,0 l/m 0 min 0 min 0 W/m 10,5 km/h (2 Bft) 95,65 %
12.04.2016 02:18 12,8 C 11,1 C 9,4 C 85 % 15 lf 1009,0 hPa 0,0 l/m 0 min 0 min 0 W/m 10,5 km/h (2 Bft) 95,74 %
12.04.2016 02:20 12,7 C 11,1 C 9,4 C 85 % 15 lf 1009,0 hPa 0,0 l/m 0 min 0 min 0 W/m 10,5 km/h (2 Bft) 100,00 %
12.04.2016 02:22 12,7 C 11,1 C 9,4 C 85 % 15 lf 1009,0 hPa 0,0 l/m 0 min 0 min 0 W/m 12,6 km/h (3 Bft) 100,00 %
12.04.2016 02:24 12,6 C 11,1 C 9,4 C 85 % 15 lf 1009,0 hPa 0,0 l/m 0 min 0 min 0 W/m 14,6 km/h (3 Bft) 97,87 %
12.04.2016 02:26 12,5 C 10,6 C 9,4 C 85 % 15 lf 1009,0 hPa 0,0 l/m 0 min 0 min 0 W/m 10,5 km/h (2 Bft) 97,87 %
12.04.2016 02:28 12,4 C 10,6 C 9,4 C 85 % 15 lf 1009,0 hPa 0,0 l/m 0 min 0 min 0 W/m 8,4 km/h (2 Bft) 95,65 %
12.04.2016 02:30 12,4 C 10,6 C 9,4 C 86 % 15 lf 1009,0 hPa 0,0 l/m 0 min 0 min 0 W/m 14,6 km/h (3 Bft) 95,74 %
12.04.2016 02:32 12,3 C 10,6 C 9,4 C 86 % 15 lf 1008,9 hPa 0,0 l/m 0 min 0 min 0 W/m 8,4 km/h (2 Bft) 95,74 %
12.04.2016 02:34 12,3 C 10,6 C 9,4 C 85 % 15 lf 1008,8 hPa 0,0 l/m 0 min 0 min 0 W/m 12,6 km/h (3 Bft) 95,74 %
12.04.2016 02:36 12,2 C 10,6 C 9,4 C 85 % 15 lf 1008,8 hPa 0,0 l/m 0 min 0 min 0 W/m 14,6 km/h (3 Bft) 97,87 %
12.04.2016 02:38 12,2 C 10,6 C 9,4 C 85 % 15 lf 1008,7 hPa 0,0 l/m 0 min 0 min 0 W/m 10,5 km/h (2 Bft) 97,87 %
12.04.2016 02:40 12,2 C 10,6 C 9,4 C 86 % 15 lf 1008,7 hPa 0,0 l/m 0 min 0 min 0 W/m 12,6 km/h (3 Bft) 97,83 %
12.04.2016 02:42 12,1 C 10,6 C 9,4 C 86 % 15 lf 1008,8 hPa 0,0 l/m 0 min 0 min 0 W/m 10,5 km/h (2 Bft) 95,74 %
12.04.2016 02:44 12,1 C 10,6 C 9,4 C 86 % 15 lf 1008,8 hPa 0,0 l/m 0 min 0 min 0 W/m 8,4 km/h (2 Bft) 93,62 %
12.04.2016 02:46 12,0 C 10,6 C 9,4 C 86 % 15 lf 1008,7 hPa 0,0 l/m 0 min 0 min 0 W/m 6,3 km/h (2 Bft) 97,87 %
12.04.2016 02:48 12,0 C 10,6 C 8,9 C 86 % 15 lf 1008,7 hPa 0,0 l/m 0 min 0 min 0 W/m 6,3 km/h (2 Bft) 97,87 %
12.04.2016 02:50 11,9 C 10,6 C 8,9 C 86 % 15 lf 1008,8 hPa 0,0 l/m 0 min 0 min 0 W/m 4,2 km/h (1 Bft) 95,74 %
12.04.2016 02:52 11,9 C 10,6 C 8,9 C 86 % 15 lf 1008,9 hPa 0,0 l/m 0 min 0 min 0 W/m 4,2 km/h (1 Bft) 95,65 %
12.04.2016 02:54 11,9 C 10,6 C 8,9 C 86 % 15 lf 1008,9 hPa 0,0 l/m 0 min 0 min 0 W/m 4,2 km/h (1 Bft) 95,74 %
12.04.2016 02:56 11,9 C 10,6 C 8,9 C 86 % 15 lf 1008,9 hPa 0,0 l/m 0 min 0 min 0 W/m 4,2 km/h (1 Bft) 97,87 %
12.04.2016 02:58 11,9 C 10,6 C 8,9 C 86 % 15 lf 1008,9 hPa 0,0 l/m 0 min 0 min 0 W/m 2,1 km/h (1 Bft) 97,87 %
12.04.2016 03:00 11,8 C 10,6 C 8,9 C 86 % 15 lf 1008,9 hPa 0,0 l/m 0 min 0 min 0 W/m 0,0 km/h (0 Bft) 95,74 %
12.04.2016 03:02 11,8 C 10,6 C 8,9 C 86 % 15 lf 1008,9 hPa 0,0 l/m 0 min 0 min 0 W/m 2,1 km/h (1 Bft) 95,74 %
12.04.2016 03:04 11,8 C 10,6 C 8,9 C 86 % 15 lf 1008,9 hPa 0,0 l/m 0 min 0 min 0 W/m 0,0 km/h (0 Bft) 97,83 %
12.04.2016 03:06 11,8 C 10,6 C 8,9 C 86 % 15 lf 1008,9 hPa 0,0 l/m 0 min 0 min 0 W/m 0,0 km/h (0 Bft) 93,62 %
12.04.2016 03:08 11,8 C 10,6 C 8,9 C 86 % 15 lf 1008,8 hPa 0,0 l/m 0 min 0 min 0 W/m 0,0 km/h (0 Bft) 100,00 %
12.04.2016 03:10 11,7 C 10,6 C 8,9 C 86 % 15 lf 1008,9 hPa 0,0 l/m 0 min 0 min 0 W/m 0,0 km/h (0 Bft) 97,87 %
12.04.2016 03:12 11,7 C 10,6 C 8,9 C 86 % 15 lf 1008,9 hPa 0,0 l/m 0 min 0 min 0 W/m 4,2 km/h (1 Bft) 100,00 %
12.04.2016 03:14 11,7 C 10,6 C 8,9 C 86 % 15 lf 1008,9 hPa 0,0 l/m 0 min 0 min 0 W/m 4,2 km/h (1 Bft) 100,00 %
12.04.2016 03:16 11,7 C 10,6 C 8,9 C 86 % 15 lf 1008,8 hPa 0,0 l/m 0 min 0 min 0 W/m 4,2 km/h (1 Bft) 97,83 %
12.04.2016 03:18 11,7 C 10,6 C 8,9 C 86 % 15 lf 1008,8 hPa 0,0 l/m 0 min 0 min 0 W/m 6,3 km/h (2 Bft) 97,87 %
12.04.2016 03:20 11,7 C 10,6 C 9,4 C 86 % 15 lf 1008,8 hPa 0,0 l/m 0 min 0 min 0 W/m 8,4 km/h (2 Bft) 97,87 %
12.04.2016 03:22 11,7 C 10,6 C 9,4 C 87 % 15 lf 1008,8 hPa 0,0 l/m 0 min 0 min 0 W/m 8,4 km/h (2 Bft) 97,87 %
12.04.2016 03:24 11,7 C 10,6 C 8,9 C 87 % 15 lf 1008,8 hPa 0,0 l/m 0 min 0 min 0 W/m 8,4 km/h (2 Bft) 95,74 %
12.04.2016 03:26 11,6 C 10,6 C 8,9 C 87 % 15 lf 1008,7 hPa 0,0 l/m 0 min 0 min 0 W/m 8,4 km/h (2 Bft) 97,83 %
12.04.2016 03:28 11,6 C 10,6 C 8,9 C 87 % 15 lf 1008,7 hPa 0,0 l/m 0 min 0 min 0 W/m 8,4 km/h (2 Bft) 97,87 %
12.04.2016 03:30 11,6 C 10,6 C 8,9 C 87 % 15 lf 1008,7 hPa 0,0 l/m 0 min 0 min 0 W/m 6,3 km/h (2 Bft) 97,87 %
12.04.2016 03:32 11,5 C 10,6 C 8,9 C 87 % 15 lf 1008,7 hPa 0,0 l/m 0 min 0 min 0 W/m 8,4 km/h (2 Bft) 95,74 %
12.04.2016 03:34 11,5 C 10,6 C 8,9 C 87 % 15 lf 1008,7 hPa 0,0 l/m 0 min 0 min 0 W/m 8,4 km/h (2 Bft) 95,74 %
12.04.2016 03:36 11,4 C 10,6 C 8,9 C 87 % 15 lf 1008,7 hPa 0,0 l/m 0 min 0 min 0 W/m 10,5 km/h (2 Bft) 95,74 %
12.04.2016 03:38 11,4 C 10,6 C 8,9 C 87 % 15 lf 1008,7 hPa 0,0 l/m 0 min 0 min 0 W/m 8,4 km/h (2 Bft) 97,83 %
12.04.2016 03:40 11,4 C 10,6 C 8,9 C 87 % 15 lf 1008,7 hPa 0,0 l/m 0 min 0 min 0 W/m 6,3 km/h (2 Bft) 95,74 %
12.04.2016 03:42 11,4 C 10,0 C 8,9 C 87 % 15 lf 1008,6 hPa 0,0 l/m 0 min 0 min 0 W/m 8,4 km/h (2 Bft) 95,74 %
12.04.2016 03:44 11,3 C 10,6 C 8,9 C 87 % 15 lf 1008,7 hPa 0,0 l/m 0 min 0 min 0 W/m 10,5 km/h (2 Bft) 97,87 %
12.04.2016 03:46 11,3 C 10,6 C 8,9 C 87 % 15 lf 1008,6 hPa 0,0 l/m 0 min 0 min 0 W/m 10,5 km/h (2 Bft) 97,87 %
12.04.2016 03:48 11,3 C 10,0 C 8,9 C 87 % 15 lf 1008,7 hPa 0,0 l/m 0 min 0 min 0 W/m 10,5 km/h (2 Bft) 97,87 %
12.04.2016 03:50 11,2 C 10,0 C 8,3 C 87 % 15 lf 1008,7 hPa 0,0 l/m 0 min 0 min 0 W/m 8,4 km/h (2 Bft) 97,83 %
12.04.2016 03:52 11,2 C 10,0 C 8,3 C 87 % 15 lf 1008,7 hPa 0,0 l/m 0 min 0 min 0 W/m 8,4 km/h (2 Bft) 100,00 %
12.04.2016 03:54 11,2 C 10,0 C 8,3 C 87 % 15 lf 1008,7 hPa 0,0 l/m 0 min 0 min 0 W/m 8,4 km/h (2 Bft) 97,87 %
12.04.2016 03:56 11,2 C 10,0 C 8,3 C 87 % 15 lf 1008,6 hPa 0,0 l/m 0 min 0 min 0 W/m 10,5 km/h (2 Bft) 97,87 %
12.04.2016 03:58 11,1 C 10,0 C 8,3 C 86 % 15 lf 1008,6 hPa 0,0 l/m 0 min 0 min 0 W/m 10,5 km/h (2 Bft) 95,74 %
12.04.2016 04:00 11,1 C 9,4 C 8,3 C 86 % 15 lf 1008,5 hPa 0,0 l/m 0 min 0 min 0 W/m 8,4 km/h (2 Bft) 97,87 %
12.04.2016 04:02 11,1 C 9,4 C 8,3 C 86 % 15 lf 1008,5 hPa 0,0 l/m 0 min 0 min 0 W/m 6,3 km/h (2 Bft) 100,00 %
12.04.2016 04:04 11,1 C 9,4 C 8,3 C 86 % 15 lf 1008,6 hPa 0,0 l/m 0 min 0 min 0 W/m 10,5 km/h (2 Bft) 97,87 %
12.04.2016 04:06 11,1 C 9,4 C 8,3 C 86 % 15 lf 1008,6 hPa 0,0 l/m 0 min 0 min 0 W/m 6,3 km/h (2 Bft) 100,00 %
12.04.2016 04:08 11,0 C 9,4 C 8,3 C 86 % 15 lf 1008,6 hPa 0,0 l/m 0 min 0 min 0 W/m 8,4 km/h (2 Bft) 100,00 %
12.04.2016 04:10 10,9 C 9,4 C 7,8 C 86 % 15 lf 1008,5 hPa 0,0 l/m 0 min 0 min 0 W/m 6,3 km/h (2 Bft) 100,00 %
12.04.2016 04:12 10,9 C 9,4 C 7,8 C 86 % 15 lf 1008,5 hPa 0,0 l/m 0 min 0 min 0 W/m 4,2 km/h (1 Bft) 100,00 %
12.04.2016 04:14 10,9 C 9,4 C 7,8 C 86 % 15 lf 1008,6 hPa 0,0 l/m 0 min 0 min 0 W/m 8,4 km/h (2 Bft) 100,00 %
12.04.2016 04:16 10,8 C 9,4 C 7,8 C 86 % 15 lf 1008,5 hPa 0,0 l/m 0 min 0 min 0 W/m 8,4 km/h (2 Bft) 97,87 %
12.04.2016 04:18 10,8 C 9,4 C 7,8 C 86 % 15 lf 1008,5 hPa 0,0 l/m 0 min 0 min 0 W/m 10,5 km/h (2 Bft) 100,00 %
12.04.2016 04:20 10,8 C 9,4 C 7,8 C 86 % 15 lf 1008,5 hPa 0,0 l/m 0 min 0 min 0 W/m 10,5 km/h (2 Bft) 93,62 %
12.04.2016 04:22 10,7 C 9,4 C 7,8 C 86 % 15 lf 1008,5 hPa 0,0 l/m 0 min 0 min 0 W/m 6,3 km/h (2 Bft) 97,87 %
12.04.2016 04:24 10,7 C 9,4 C 7,8 C 86 % 15 lf 1008,5 hPa 0,0 l/m 0 min 0 min 0 W/m 10,5 km/h (2 Bft) 95,65 %
12.04.2016 04:26 10,7 C 9,4 C 7,2 C 86 % 15 lf 1008,6 hPa 0,0 l/m 0 min 0 min 0 W/m 8,4 km/h (2 Bft) 95,74 %
12.04.2016 04:28 10,6 C 9,4 C 7,2 C 86 % 15 lf 1008,5 hPa 0,0 l/m 0 min 0 min 0 W/m 10,5 km/h (2 Bft) 95,74 %
12.04.2016 04:30 10,6 C 9,4 C 7,2 C 85 % 15 lf 1008,5 hPa 0,0 l/m 0 min 0 min 0 W/m 8,4 km/h (2 Bft) 97,87 %
12.04.2016 04:32 10,5 C 9,4 C 7,2 C 85 % 15 lf 1008,5 hPa 0,0 l/m 0 min 0 min 0 W/m 8,4 km/h (2 Bft) 91,49 %
12.04.2016 04:34 10,4 C 9,4 C 7,2 C 85 % 15 lf 1008,5 hPa 0,0 l/m 0 min 0 min 0 W/m 8,4 km/h (2 Bft) 97,87 %
12.04.2016 04:36 10,4 C 9,4 C 7,2 C 85 % 15 lf 1008,5 hPa 0,0 l/m 0 min 0 min 0 W/m 12,6 km/h (3 Bft) 91,30 %
12.04.2016 04:38 10,4 C 8,9 C 7,2 C 86 % 15 lf 1008,5 hPa 0,0 l/m 0 min 0 min 0 W/m 10,5 km/h (2 Bft) 98,00 %
12.04.2016 04:40 10,3 C 8,9 C 7,2 C 86 % 15 lf 1008,5 hPa 0,0 l/m 0 min 0 min 0 W/m 8,4 km/h (2 Bft) 95,74 %
12.04.2016 04:42 10,3 C 8,9 C 7,2 C 86 % 14 lf 1008,5 hPa 0,0 l/m 0 min 0 min 0 W/m 8,4 km/h (2 Bft) 95,74 %
12.04.2016 04:44 10,3 C 8,9 C 7,2 C 86 % 14 lf 1008,5 hPa 0,0 l/m 0 min 0 min 0 W/m 10,5 km/h (2 Bft) 89,36 %
12.04.2016 04:46 10,2 C 8,9 C 7,2 C 86 % 13 lf 1008,5 hPa 0,0 l/m 0 min 0 min 0 W/m 8,4 km/h (2 Bft) 95,74 %
12.04.2016 04:48 10,2 C 8,9 C 7,2 C 86 % 12 lf 1008,5 hPa 0,0 l/m 0 min 0 min 0 W/m 6,3 km/h (2 Bft) 93,48 %
12.04.2016 04:50 10,2 C 8,9 C 7,2 C 85 % 10 lf 1008,5 hPa 0,0 l/m 0 min 0 min 0 W/m 8,4 km/h (2 Bft) 93,62 %
12.04.2016 04:52 10,1 C 8,9 C 7,2 C 85 % 9 lf 1008,5 hPa 0,0 l/m 0 min 0 min 0 W/m 6,3 km/h (2 Bft) 95,74 %
12.04.2016 04:54 10,1 C 8,9 C 7,2 C 85 % 7 lf 1008,5 hPa 0,0 l/m 0 min 0 min 0 W/m 8,4 km/h (2 Bft) 95,74 %
12.04.2016 04:56 10,1 C 8,9 C 7,2 C 85 % 4 lf 1008,5 hPa 0,0 l/m 0 min 0 min 0 W/m 6,3 km/h (2 Bft) 95,74 %
12.04.2016 04:58 10,1 C 8,9 C 7,2 C 85 % 3 lf 1008,4 hPa 0,0 l/m 0 min 0 min 0 W/m 8,4 km/h (2 Bft) 89,13 %
12.04.2016 05:00 10,0 C 8,9 C 7,2 C 85 % 3 lf 1008,5 hPa 0,0 l/m 0 min 0 min 0 W/m 8,4 km/h (2 Bft) 91,49 %
12.04.2016 05:02 10,0 C 8,9 C 7,2 C 85 % 2 lf 1008,5 hPa 0,0 l/m 0 min 0 min 0 W/m 4,2 km/h (1 Bft) 93,62 %
12.04.2016 05:04 9,9 C 8,9 C 6,7 C 86 % 1 lf 1008,4 hPa 0,0 l/m 0 min 0 min 0 W/m 6,3 km/h (2 Bft) 87,23 %
12.04.2016 05:06 9,9 C 8,9 C 6,7 C 86 % 1 lf 1008,4 hPa 0,0 l/m 0 min 0 min 0 W/m 6,3 km/h (2 Bft) 93,62 %
12.04.2016 05:08 9,9 C 8,9 C 6,7 C 86 % 0 lf 1008,4 hPa 0,0 l/m 0 min 0 min 0 W/m 6,3 km/h (2 Bft) 93,62 %
12.04.2016 05:10 9,9 C 8,9 C 6,7 C 86 % 0 lf 1008,4 hPa 0,0 l/m 0 min 0 min 0 W/m 6,3 km/h (2 Bft) 91,30 %
12.04.2016 05:12 9,9 C 8,9 C 6,7 C 86 % 0 lf 1008,4 hPa 0,0 l/m 0 min 0 min 0 W/m 6,3 km/h (2 Bft) 93,62 %
12.04.2016 05:14 9,8 C 8,9 C 6,7 C 86 % 0 lf 1008,5 hPa 0,0 l/m 0 min 0 min 0 W/m 6,3 km/h (2 Bft) 89,36 %
12.04.2016 05:16 9,8 C 8,9 C 6,7 C 86 % 0 lf 1008,4 hPa 0,0 l/m 0 min 0 min 0 W/m 6,3 km/h (2 Bft) 95,74 %
12.04.2016 05:18 9,8 C 8,3 C 6,7 C 86 % 0 lf 1008,4 hPa 0,0 l/m 0 min 0 min 0 W/m 6,3 km/h (2 Bft) 89,36 %
12.04.2016 05:20 9,8 C 8,9 C 6,7 C 86 % 0 lf 1008,3 hPa 0,0 l/m 0 min 0 min 0 W/m 6,3 km/h (2 Bft) 91,49 %
12.04.2016 05:22 9,7 C 8,9 C 6,7 C 86 % 0 lf 1008,3 hPa 0,0 l/m 0 min 0 min 0 W/m 6,3 km/h (2 Bft) 93,48 %
12.04.2016 05:24 9,7 C 8,9 C 6,7 C 86 % 0 lf 1008,3 hPa 0,0 l/m 0 min 0 min 0 W/m 8,4 km/h (2 Bft) 93,62 %
12.04.2016 05:26 9,7 C 8,9 C 6,7 C 86 % 0 lf 1008,4 hPa 0,0 l/m 0 min 0 min 0 W/m 6,3 km/h (2 Bft) 89,36 %
12.04.2016 05:28 9,7 C 8,3 C 6,7 C 86 % 0 lf 1008,3 hPa 0,0 l/m 0 min 0 min 0 W/m 6,3 km/h (2 Bft) 91,49 %
12.04.2016 05:30 9,7 C 8,3 C 6,7 C 86 % 0 lf 1008,3 hPa 0,0 l/m 0 min 0 min 0 W/m 6,3 km/h (2 Bft) 93,62 %
12.04.2016 05:32 9,6 C 8,3 C 6,7 C 86 % 0 lf 1008,3 hPa 0,0 l/m 0 min 0 min 0 W/m 4,2 km/h (1 Bft) 89,36 %
12.04.2016 05:34 9,6 C 8,3 C 6,7 C 86 % 0 lf 1008,3 hPa 0,0 l/m 0 min 0 min 0 W/m 6,3 km/h (2 Bft) 91,30 %
12.04.2016 05:36 9,6 C 8,3 C 6,7 C 86 % 0 lf 1008,3 hPa 0,0 l/m 0 min 0 min 0 W/m 4,2 km/h (1 Bft) 91,49 %
12.04.2016 05:38 9,6 C 8,3 C 6,7 C 86 % 0 lf 1008,2 hPa 0,0 l/m 0 min 0 min 0 W/m 4,2 km/h (1 Bft) 93,62 %
12.04.2016 05:40 9,6 C 8,3 C 6,7 C 86 % 0 lf 1008,2 hPa 0,0 l/m 0 min 0 min 0 W/m 4,2 km/h (1 Bft) 95,74 %
12.04.2016 05:42 9,5 C 8,3 C 6,7 C 86 % 0 lf 1008,3 hPa 0,0 l/m 0 min 0 min 0 W/m 2,1 km/h (1 Bft) 95,74 %
12.04.2016 05:44 9,5 C 8,3 C 6,1 C 86 % 0 lf 1008,3 hPa 0,0 l/m 0 min 0 min 0 W/m 4,2 km/h (1 Bft) 95,74 %
12.04.2016 05:46 9,4 C 8,3 C 6,1 C 86 % 1 lf 1008,3 hPa 0,0 l/m 0 min 0 min 0 W/m 6,3 km/h (2 Bft) 95,65 %
12.04.2016 05:48 9,4 C 7,8 C 6,1 C 86 % 1 lf 1008,4 hPa 0,0 l/m 0 min 0 min 0 W/m 6,3 km/h (2 Bft) 97,87 %
12.04.2016 05:50 9,4 C 7,8 C 6,1 C 87 % 1 lf 1008,4 hPa 0,0 l/m 0 min 0 min 0 W/m 6,3 km/h (2 Bft) 95,74 %
12.04.2016 05:52 9,4 C 7,8 C 6,1 C 87 % 1 lf 1008,3 hPa 0,0 l/m 0 min 0 min 0 W/m 6,3 km/h (2 Bft) 100,00 %
12.04.2016 05:54 9,3 C 7,8 C 6,1 C 87 % 1 lf 1008,2 hPa 0,0 l/m 0 min 0 min 0 W/m 6,3 km/h (2 Bft) 95,74 %
12.04.2016 05:56 9,3 C 8,3 C 6,1 C 87 % 1 lf 1008,2 hPa 0,0 l/m 0 min 0 min 0 W/m 6,3 km/h (2 Bft) 95,74 %
12.04.2016 05:58 9,3 C 7,8 C 6,1 C 87 % 1 lf 1008,1 hPa 0,0 l/m 0 min 0 min 0 W/m 8,4 km/h (2 Bft) 97,83 %
12.04.2016 06:00 9,2 C 7,8 C 6,1 C 87 % 1 lf 1008,3 hPa 0,0 l/m 0 min 0 min 0 W/m 6,3 km/h (2 Bft) 100,00 %
12.04.2016 06:02 9,2 C 7,8 C 6,1 C 87 % 0 lf 1008,3 hPa 0,0 l/m 0 min 0 min 0 W/m 8,4 km/h (2 Bft) 95,74 %
12.04.2016 06:04 9,2 C 8,3 C 6,1 C 87 % 0 lf 1008,4 hPa 0,0 l/m 0 min 0 min 0 W/m 10,5 km/h (2 Bft) 100,00 %
12.04.2016 06:06 9,1 C 8,3 C 6,7 C 87 % 0 lf 1008,5 hPa 0,0 l/m 0 min 0 min 0 W/m 8,4 km/h (2 Bft) 100,00 %
12.04.2016 06:08 9,1 C 8,3 C 6,7 C 87 % 0 lf 1008,5 hPa 0,0 l/m 0 min 0 min 0 W/m 8,4 km/h (2 Bft) 100,00 %
12.04.2016 06:10 9,1 C 8,3 C 6,7 C 87 % 0 lf 1008,5 hPa 0,0 l/m 0 min 0 min 0 W/m 8,4 km/h (2 Bft) 95,65 %
12.04.2016 06:12 9,0 C 8,3 C 6,7 C 88 % 0 lf 1008,4 hPa 0,0 l/m 0 min 0 min 0 W/m 8,4 km/h (2 Bft) 100,00 %
12.04.2016 06:14 9,0 C 7,8 C 6,1 C 88 % 0 lf 1008,4 hPa 0,0 l/m 0 min 0 min 0 W/m 6,3 km/h (2 Bft) 95,74 %
12.04.2016 06:16 8,9 C 7,8 C 6,1 C 88 % 0 lf 1008,4 hPa 0,0 l/m 0 min 0 min 0 W/m 6,3 km/h (2 Bft) 100,00 %
12.04.2016 06:18 8,9 C 7,8 C 6,1 C 88 % 0 lf 1008,4 hPa 0,0 l/m 0 min 0 min 0 W/m 6,3 km/h (2 Bft) 100,00 %
12.04.2016 06:20 8,9 C 7,8 C 6,1 C 88 % 0 lf 1008,4 hPa 0,0 l/m 0 min 0 min 0 W/m 8,4 km/h (2 Bft) 100,00 %
12.04.2016 06:22 8,8 C 7,8 C 6,1 C 88 % 0 lf 1008,4 hPa 0,0 l/m 0 min 0 min 0 W/m 6,3 km/h (2 Bft) 100,00 %
12.04.2016 06:24 8,8 C 7,8 C 6,1 C 88 % 0 lf 1008,4 hPa 0,0 l/m 0 min 0 min 0 W/m 8,4 km/h (2 Bft) 100,00 %
12.04.2016 06:26 8,8 C 7,8 C 6,1 C 88 % 0 lf 1008,4 hPa 0,0 l/m 0 min 0 min 0 W/m 8,4 km/h (2 Bft) 95,74 %
12.04.2016 06:28 8,8 C 7,8 C 6,1 C 88 % 0 lf 1008,5 hPa 0,0 l/m 0 min 0 min 0 W/m 8,4 km/h (2 Bft) 100,00 %
12.04.2016 06:30 8,7 C 7,8 C 6,1 C 88 % 0 lf 1008,5 hPa 0,0 l/m 0 min 0 min 0 W/m 8,4 km/h (2 Bft) 100,00 %
12.04.2016 06:32 8,7 C 7,8 C 6,1 C 88 % 0 lf 1008,5 hPa 0,0 l/m 0 min 0 min 0 W/m 12,6 km/h (3 Bft) 97,83 %
12.04.2016 06:34 8,7 C 7,8 C 6,1 C 88 % 0 lf 1008,5 hPa 0,0 l/m 0 min 0 min 0 W/m 8,4 km/h (2 Bft) 100,00 %
12.04.2016 06:36 8,7 C 7,8 C 6,1 C 88 % 0 lf 1008,5 hPa 0,0 l/m 0 min 0 min 0 W/m 8,4 km/h (2 Bft) 97,87 %
12.04.2016 06:38 8,7 C 7,8 C 6,1 C 88 % 0 lf 1008,6 hPa 0,0 l/m 0 min 0 min 0 W/m 6,3 km/h (2 Bft) 100,00 %
12.04.2016 06:40 8,7 C 7,8 C 6,1 C 89 % 0 lf 1008,6 hPa 0,0 l/m 0 min 0 min 2 W/m 8,4 km/h (2 Bft) 100,00 %
12.04.2016 06:42 8,7 C 7,8 C 6,1 C 89 % 0 lf 1008,6 hPa 0,0 l/m 0 min 0 min 5 W/m 10,5 km/h (2 Bft) 95,74 %
12.04.2016 06:44 8,7 C 7,8 C 6,1 C 89 % 0 lf 1008,7 hPa 0,0 l/m 0 min 0 min 5 W/m 8,4 km/h (2 Bft) 97,83 %
12.04.2016 06:46 8,6 C 8,3 C 6,1 C 89 % 0 lf 1008,6 hPa 0,0 l/m 0 min 0 min 5 W/m 10,5 km/h (2 Bft) 100,00 %
12.04.2016 06:48 8,6 C 8,3 C 6,1 C 89 % 0 lf 1008,7 hPa 0,0 l/m 0 min 0 min 7 W/m 10,5 km/h (2 Bft) 100,00 %
12.04.2016 06:50 8,6 C 8,3 C 6,1 C 89 % 0 lf 1008,7 hPa 0,0 l/m 0 min 0 min 7 W/m 6,3 km/h (2 Bft) 100,00 %
12.04.2016 06:52 8,6 C 8,3 C 6,1 C 89 % 0 lf 1008,7 hPa 0,0 l/m 0 min 0 min 7 W/m 10,5 km/h (2 Bft) 100,00 %
12.04.2016 06:54 8,6 C 8,3 C 6,1 C 89 % 0 lf 1008,8 hPa 0,0 l/m 0 min 0 min 9 W/m 8,4 km/h (2 Bft) 97,87 %
12.04.2016 06:56 8,6 C 8,3 C 6,1 C 89 % 0 lf 1008,8 hPa 0,0 l/m 0 min 0 min 9 W/m 6,3 km/h (2 Bft) 100,00 %
12.04.2016 06:58 8,6 C 8,3 C 6,1 C 89 % 0 lf 1008,8 hPa 0,0 l/m 0 min 0 min 11 W/m 8,4 km/h (2 Bft) 100,00 %
12.04.2016 07:00 8,6 C 8,3 C 6,1 C 89 % 0 lf 1008,7 hPa 0,0 l/m 0 min 0 min 11 W/m 10,5 km/h (2 Bft) 95,74 %
12.04.2016 07:02 8,6 C 8,3 C 6,1 C 89 % 0 lf 1008,7 hPa 0,0 l/m 0 min 0 min 12 W/m 6,3 km/h (2 Bft) 100,00 %
12.04.2016 07:04 8,6 C 8,3 C 6,1 C 89 % 0 lf 1008,7 hPa 0,0 l/m 0 min 0 min 13 W/m 6,3 km/h (2 Bft) 100,00 %
12.04.2016 07:06 8,6 C 8,3 C 6,1 C 89 % 0 lf 1008,7 hPa 0,0 l/m 0 min 0 min 14 W/m 6,3 km/h (2 Bft) 100,00 %
12.04.2016 07:08 8,5 C 8,3 C 6,1 C 89 % 0 lf 1008,7 hPa 0,0 l/m 0 min 0 min 17 W/m 8,4 km/h (2 Bft) 97,83 %
12.04.2016 07:10 8,5 C 8,3 C 6,1 C 90 % 0 lf 1008,7 hPa 0,0 l/m 0 min 0 min 21 W/m 6,3 km/h (2 Bft) 95,74 %
12.04.2016 07:12 8,5 C 8,3 C 6,1 C 90 % 0 lf 1008,6 hPa 0,0 l/m 0 min 0 min 22 W/m 4,2 km/h (1 Bft) 91,49 %
12.04.2016 07:14 8,4 C 8,3 C 6,1 C 90 % 0 lf 1008,7 hPa 0,0 l/m 0 min 0 min 16 W/m 4,2 km/h (1 Bft) 97,87 %
12.04.2016 07:16 8,4 C 8,3 C 6,1 C 90 % 0 lf 1008,7 hPa 0,0 l/m 0 min 0 min 15 W/m 4,2 km/h (1 Bft) 97,87 %
12.04.2016 07:18 8,4 C 8,3 C 6,1 C 90 % 0 lf 1008,8 hPa 0,0 l/m 0 min 0 min 16 W/m 6,3 km/h (2 Bft) 95,65 %
12.04.2016 07:20 8,4 C 8,3 C 6,1 C 90 % 0 lf 1008,8 hPa 0,0 l/m 0 min 0 min 17 W/m 4,2 km/h (1 Bft) 95,74 %
12.04.2016 07:22 8,4 C 8,3 C 6,1 C 90 % 0 lf 1008,8 hPa 0,0 l/m 0 min 0 min 20 W/m 4,2 km/h (1 Bft) 95,74 %
12.04.2016 07:24 8,4 C 8,3 C 6,1 C 90 % 1 lf 1008,8 hPa 0,0 l/m 0 min 0 min 27 W/m 6,3 km/h (2 Bft) 95,74 %
12.04.2016 07:26 8,4 C 7,8 C 6,1 C 90 % 1 lf 1008,8 hPa 0,0 l/m 0 min 0 min 39 W/m 6,3 km/h (2 Bft) 97,87 %
12.04.2016 07:28 8,4 C 8,3 C 6,1 C 90 % 1 lf 1008,8 hPa 0,0 l/m 2 min 0 min 53 W/m 6,3 km/h (2 Bft) 95,74 %
12.04.2016 07:30 8,4 C 8,3 C 6,1 C 90 % 1 lf 1008,8 hPa 0,0 l/m 0 min 0 min 50 W/m 6,3 km/h (2 Bft) 93,48 %
12.04.2016 07:32 8,4 C 8,3 C 6,1 C 90 % 0 lf 1008,8 hPa 0,0 l/m 2 min 0 min 68 W/m 6,3 km/h (2 Bft) 93,62 %
12.04.2016 07:34 8,4 C 8,3 C 6,1 C 90 % 0 lf 1008,8 hPa 0,0 l/m 2 min 0 min 74 W/m 6,3 km/h (2 Bft) 91,49 %
12.04.2016 07:36 8,3 C 8,3 C 6,1 C 90 % 0 lf 1008,9 hPa 0,0 l/m 2 min 0 min 80 W/m 6,3 km/h (2 Bft) 93,62 %
12.04.2016 07:38 8,3 C 8,9 C 6,1 C 90 % 0 lf 1008,9 hPa 0,0 l/m 2 min 0 min 84 W/m 4,2 km/h (1 Bft) 95,74 %
12.04.2016 07:40 8,3 C 8,9 C 6,1 C 90 % 0 lf 1008,9 hPa 0,0 l/m 2 min 0 min 90 W/m 6,3 km/h (2 Bft) 91,49 %
12.04.2016 07:42 8,4 C 8,9 C 6,7 C 90 % 0 lf 1008,8 hPa 0,0 l/m 2 min 0 min 94 W/m 8,4 km/h (2 Bft) 93,48 %
12.04.2016 07:44 8,4 C 8,9 C 6,7 C 90 % 0 lf 1008,9 hPa 0,0 l/m 2 min 0 min 102 W/m 6,3 km/h (2 Bft) 91,49 %
12.04.2016 07:46 8,4 C 8,9 C 6,7 C 91 % 0 lf 1008,8 hPa 0,0 l/m 2 min 0 min 109 W/m 6,3 km/h (2 Bft) 95,74 %
12.04.2016 07:48 8,4 C 8,9 C 6,7 C 91 % 0 lf 1008,9 hPa 0,0 l/m 2 min 0 min 114 W/m 6,3 km/h (2 Bft) 95,74 %
12.04.2016 07:50 8,4 C 8,9 C 6,7 C 91 % 0 lf 1008,9 hPa 0,0 l/m 2 min 0 min 120 W/m 8,4 km/h (2 Bft) 91,49 %
12.04.2016 07:52 8,4 C 8,9 C 6,7 C 91 % 0 lf 1009,0 hPa 0,0 l/m 2 min 0 min 129 W/m 8,4 km/h (2 Bft) 91,49 %
12.04.2016 07:54 8,4 C 8,9 C 6,7 C 91 % 0 lf 1009,0 hPa 0,0 l/m 2 min 0 min 136 W/m 6,3 km/h (2 Bft) 93,48 %
12.04.2016 07:56 8,4 C 8,9 C 6,7 C 91 % 0 lf 1009,1 hPa 0,0 l/m 2 min 0 min 143 W/m 8,4 km/h (2 Bft) 95,74 %
12.04.2016 07:58 8,4 C 8,9 C 6,7 C 91 % 0 lf 1009,1 hPa 0,0 l/m 2 min 0 min 149 W/m 8,4 km/h (2 Bft) 93,62 %
12.04.2016 08:00 8,4 C 9,4 C 6,7 C 91 % 0 lf 1009,2 hPa 0,0 l/m 2 min 0 min 155 W/m 8,4 km/h (2 Bft) 93,62 %
12.04.2016 08:02 8,5 C 9,4 C 6,7 C 91 % 0 lf 1009,2 hPa 0,0 l/m 2 min 0 min 161 W/m 6,3 km/h (2 Bft) 95,74 %
12.04.2016 08:04 8,5 C 9,4 C 6,7 C 91 % 0 lf 1009,2 hPa 0,0 l/m 2 min 0 min 169 W/m 4,2 km/h (1 Bft) 93,62 %
12.04.2016 08:06 8,6 C 9,4 C 6,7 C 91 % 0 lf 1009,2 hPa 0,0 l/m 2 min 0 min 175 W/m 6,3 km/h (2 Bft) 93,48 %
12.04.2016 08:08 8,6 C 9,4 C 7,2 C 91 % 0 lf 1009,2 hPa 0,0 l/m 2 min 0 min 182 W/m 8,4 km/h (2 Bft) 91,49 %
12.04.2016 08:10 8,6 C 9,4 C 7,2 C 91 % 0 lf 1009,1 hPa 0,0 l/m 2 min 0 min 188 W/m 6,3 km/h (2 Bft) 95,74 %
12.04.2016 08:12 8,7 C 10,0 C 7,2 C 91 % 0 lf 1009,0 hPa 0,0 l/m 2 min 0 min 196 W/m 6,3 km/h (2 Bft) 91,49 %
12.04.2016 08:14 8,7 C 10,0 C 7,2 C 91 % 0 lf 1009,0 hPa 0,0 l/m 2 min 0 min 203 W/m 6,3 km/h (2 Bft) 95,74 %
12.04.2016 08:16 8,7 C 10,0 C 7,2 C 91 % 0 lf 1009,0 hPa 0,0 l/m 2 min 0 min 209 W/m 8,4 km/h (2 Bft) 95,74 %
12.04.2016 08:18 8,7 C 10,0 C 7,2 C 91 % 0 lf 1009,0 hPa 0,0 l/m 2 min 0 min 215 W/m 6,3 km/h (2 Bft) 97,83 %
12.04.2016 08:20 8,8 C 10,0 C 7,2 C 91 % 0 lf 1009,1 hPa 0,0 l/m 2 min 0 min 221 W/m 6,3 km/h (2 Bft) 97,87 %
12.04.2016 08:22 8,8 C 10,0 C 7,2 C 91 % 0 lf 1009,1 hPa 0,0 l/m 2 min 0 min 229 W/m 8,4 km/h (2 Bft) 97,87 %
12.04.2016 08:24 8,9 C 10,0 C 7,2 C 91 % 0 lf 1009,1 hPa 0,0 l/m 2 min 0 min 235 W/m 6,3 km/h (2 Bft) 95,74 %
12.04.2016 08:26 8,9 C 10,6 C 7,2 C 91 % 0 lf 1009,0 hPa 0,0 l/m 2 min 0 min 240 W/m 6,3 km/h (2 Bft) 95,74 %
12.04.2016 08:28 9,0 C 10,6 C 7,2 C 92 % 0 lf 1009,1 hPa 0,0 l/m 2 min 0 min 246 W/m 6,3 km/h (2 Bft) 100,00 %
12.04.2016 08:30 9,1 C 10,6 C 7,8 C 92 % 0 lf 1009,1 hPa 0,0 l/m 2 min 0 min 252 W/m 4,2 km/h (1 Bft) 100,00 %
12.04.2016 08:32 9,1 C 10,6 C 7,8 C 92 % 0 lf 1009,1 hPa 0,0 l/m 2 min 0 min 256 W/m 4,2 km/h (1 Bft) 95,74 %
12.04.2016 08:34 9,2 C 10,6 C 7,8 C 92 % 0 lf 1009,1 hPa 0,0 l/m 2 min 0 min 263 W/m 8,4 km/h (2 Bft) 97,87 %
12.04.2016 08:36 9,2 C 10,6 C 8,3 C 91 % 0 lf 1009,2 hPa 0,0 l/m 2 min 0 min 269 W/m 6,3 km/h (2 Bft) 97,87 %
12.04.2016 08:38 9,3 C 10,6 C 8,3 C 91 % 0 lf 1009,2 hPa 0,0 l/m 2 min 0 min 274 W/m 4,2 km/h (1 Bft) 100,00 %
12.04.2016 08:40 9,4 C 11,1 C 8,9 C 91 % 0 lf 1009,1 hPa 0,0 l/m 2 min 0 min 280 W/m 4,2 km/h (1 Bft) 97,83 %
12.04.2016 08:42 9,4 C 11,1 C 8,9 C 91 % 0 lf 1009,2 hPa 0,0 l/m 2 min 0 min 285 W/m 6,3 km/h (2 Bft) 93,62 %
12.04.2016 08:44 9,6 C 11,1 C 8,9 C 91 % 0 lf 1009,2 hPa 0,0 l/m 2 min 0 min 291 W/m 6,3 km/h (2 Bft) 97,87 %
12.04.2016 08:46 9,7 C 11,7 C 8,9 C 91 % 0 lf 1009,2 hPa 0,0 l/m 2 min 0 min 296 W/m 6,3 km/h (2 Bft) 100,00 %
12.04.2016 08:48 9,7 C 11,7 C 8,9 C 91 % 0 lf 1009,2 hPa 0,0 l/m 2 min 0 min 302 W/m 6,3 km/h (2 Bft) 93,62 %
12.04.2016 08:50 9,9 C 11,7 C 9,4 C 91 % 0 lf 1009,3 hPa 0,0 l/m 2 min 0 min 308 W/m 6,3 km/h (2 Bft) 100,00 %
12.04.2016 08:52 10,0 C 11,7 C 9,4 C 91 % 0 lf 1009,3 hPa 0,0 l/m 2 min 0 min 314 W/m 6,3 km/h (2 Bft) 97,83 %
12.04.2016 08:54 10,1 C 11,7 C 9,4 C 91 % 0 lf 1009,2 hPa 0,0 l/m 2 min 0 min 319 W/m 4,2 km/h (1 Bft) 100,00 %
12.04.2016 08:56 10,2 C 12,2 C 9,4 C 90 % 0 lf 1009,2 hPa 0,0 l/m 2 min 0 min 325 W/m 6,3 km/h (2 Bft) 97,87 %
12.04.2016 08:58 10,3 C 12,2 C 9,4 C 90 % 0 lf 1009,2 hPa 0,0 l/m 2 min 0 min 329 W/m 6,3 km/h (2 Bft) 93,62 %
12.04.2016 09:00 10,3 C 12,2 C 9,4 C 90 % 0 lf 1009,2 hPa 0,0 l/m 2 min 0 min 335 W/m 6,3 km/h (2 Bft) 95,74 %
12.04.2016 09:02 10,4 C 12,8 C 9,4 C 90 % 0 lf 1009,2 hPa 0,0 l/m 2 min 0 min 340 W/m 8,4 km/h (2 Bft) 97,87 %
12.04.2016 09:04 10,5 C 12,8 C 9,4 C 90 % 0 lf 1009,2 hPa 0,0 l/m 2 min 0 min 345 W/m 8,4 km/h (2 Bft) 95,65 %
12.04.2016 09:06 10,6 C 13,3 C 9,4 C 90 % 0 lf 1009,3 hPa 0,0 l/m 2 min 0 min 352 W/m 4,2 km/h (1 Bft) 95,74 %
12.04.2016 09:08 10,7 C 14,4 C 9,4 C 89 % 0 lf 1009,3 hPa 0,0 l/m 2 min 0 min 358 W/m 8,4 km/h (2 Bft) 95,74 %
12.04.2016 09:10 10,7 C 15,6 C 9,4 C 89 % 0 lf 1009,3 hPa 0,0 l/m 2 min 0 min 363 W/m 4,2 km/h (1 Bft) 91,49 %
12.04.2016 09:12 10,8 C 16,1 C 10,0 C 89 % 0 lf 1009,3 hPa 0,0 l/m 2 min 0 min 368 W/m 10,5 km/h (2 Bft) 95,74 %
12.04.2016 09:14 10,9 C 17,2 C 10,0 C 89 % 0 lf 1009,4 hPa 0,0 l/m 2 min 0 min 372 W/m 8,4 km/h (2 Bft) 93,62 %
12.04.2016 09:16 11,1 C 16,7 C 10,6 C 89 % 0 lf 1009,3 hPa 0,0 l/m 2 min 0 min 378 W/m 6,3 km/h (2 Bft) 91,30 %
12.04.2016 09:18 11,2 C 16,7 C 10,6 C 88 % 0 lf 1009,2 hPa 0,0 l/m 2 min 0 min 383 W/m 10,5 km/h (2 Bft) 93,62 %
12.04.2016 09:20 11,4 C 17,8 C 10,6 C 88 % 0 lf 1009,3 hPa 0,0 l/m 2 min 0 min 388 W/m 8,4 km/h (2 Bft) 93,62 %
12.04.2016 09:22 11,6 C 17,8 C 10,6 C 87 % 0 lf 1009,3 hPa 0,0 l/m 2 min 0 min 394 W/m 8,4 km/h (2 Bft) 95,74 %
12.04.2016 09:24 11,8 C 17,2 C 11,1 C 86 % 0 lf 1009,3 hPa 0,0 l/m 2 min 0 min 401 W/m 10,5 km/h (2 Bft) 95,74 %
12.04.2016 09:26 12,0 C 17,8 C 11,1 C 85 % 0 lf 1009,3 hPa 0,0 l/m 2 min 0 min 406 W/m 10,5 km/h (2 Bft) 95,74 %
12.04.2016 09:28 12,2 C 18,3 C 11,1 C 85 % 0 lf 1009,3 hPa 0,0 l/m 2 min 0 min 411 W/m 10,5 km/h (2 Bft) 95,65 %
12.04.2016 09:30 12,3 C 18,3 C 11,1 C 84 % 0 lf 1009,3 hPa 0,0 l/m 2 min 0 min 418 W/m 12,6 km/h (3 Bft) 93,62 %
12.04.2016 09:32 12,5 C 18,3 C 11,7 C 83 % 0 lf 1009,4 hPa 0,0 l/m 2 min 0 min 425 W/m 8,4 km/h (2 Bft) 93,62 %
12.04.2016 09:34 12,7 C 18,9 C 11,7 C 82 % 0 lf 1009,4 hPa 0,0 l/m 2 min 0 min 431 W/m 10,5 km/h (2 Bft) 95,74 %
12.04.2016 09:36 12,9 C 18,9 C 11,7 C 81 % 0 lf 1009,4 hPa 0,0 l/m 2 min 0 min 439 W/m 8,4 km/h (2 Bft) 91,49 %
12.04.2016 09:38 13,0 C 20,0 C 11,7 C 81 % 0 lf 1009,4 hPa 0,0 l/m 2 min 0 min 447 W/m 8,4 km/h (2 Bft) 93,62 %
12.04.2016 09:40 13,2 C 19,4 C 12,8 C 80 % 0 lf 1009,5 hPa 0,0 l/m 2 min 0 min 460 W/m 12,6 km/h (3 Bft) 93,48 %
12.04.2016 09:42 13,3 C 20,0 C 13,9 C 79 % 0 lf 1009,4 hPa 0,0 l/m 2 min 0 min 492 W/m 10,5 km/h (2 Bft) 95,74 %
12.04.2016 09:44 13,5 C 20,0 C 16,7 C 79 % 0 lf 1009,4 hPa 0,0 l/m 2 min 0 min 555 W/m 8,4 km/h (2 Bft) 93,62 %
12.04.2016 09:46 13,7 C 20,6 C 17,8 C 78 % 0 lf 1009,4 hPa 0,0 l/m 2 min 0 min 624 W/m 8,4 km/h (2 Bft) 97,87 %
12.04.2016 09:48 13,8 C 20,6 C 17,8 C 78 % 0 lf 1009,4 hPa 0,0 l/m 2 min 0 min 636 W/m 16,7 km/h (3 Bft) 97,87 %
12.04.2016 09:50 13,9 C 18,9 C 17,2 C 77 % 0 lf 1009,5 hPa 0,0 l/m 2 min 0 min 509 W/m 16,7 km/h (3 Bft) 95,65 %
12.04.2016 09:52 14,2 C 19,4 C 17,2 C 77 % 0 lf 1009,4 hPa 0,0 l/m 2 min 0 min 332 W/m 8,4 km/h (2 Bft) 97,87 %
12.04.2016 09:54 14,2 C 18,3 C 16,7 C 76 % 0 lf 1009,5 hPa 0,0 l/m 2 min 0 min 320 W/m 8,4 km/h (2 Bft) 93,62 %
12.04.2016 09:56 14,3 C 17,8 C 15,6 C 76 % 0 lf 1009,5 hPa 0,0 l/m 2 min 0 min 289 W/m 8,4 km/h (2 Bft) 100,00 %
12.04.2016 09:58 14,4 C 18,3 C 16,1 C 75 % 0 lf 1009,4 hPa 0,0 l/m 2 min 0 min 258 W/m 8,4 km/h (2 Bft) 95,74 %
12.04.2016 10:00 14,4 C 17,8 C 15,6 C 75 % 0 lf 1009,5 hPa 0,0 l/m 2 min 0 min 265 W/m 6,3 km/h (2 Bft) 97,87 %
12.04.2016 10:02 14,5 C 16,7 C 15,0 C 74 % 0 lf 1009,4 hPa 0,0 l/m 0 min 0 min 240 W/m 10,5 km/h (2 Bft) 100,00 %
12.04.2016 10:04 14,6 C 16,7 C 14,4 C 73 % 0 lf 1009,5 hPa 0,0 l/m 0 min 0 min 228 W/m 8,4 km/h (2 Bft) 98,08 %
12.04.2016 10:06 14,6 C 16,7 C 13,9 C 73 % 0 lf 1009,4 hPa 0,0 l/m 0 min 0 min 229 W/m 8,4 km/h (2 Bft) 97,87 %
12.04.2016 10:08 14,6 C 16,7 C 13,9 C 73 % 0 lf 1009,5 hPa 0,0 l/m 0 min 0 min 231 W/m 8,4 km/h (2 Bft) 97,56 %
12.04.2016 10:10 14,6 C 17,8 C 13,9 C 73 % 0 lf 1009,5 hPa 0,0 l/m 2 min 0 min 259 W/m 8,4 km/h (2 Bft) 100,00 %
12.04.2016 10:12 14,6 C 17,8 C 15,0 C 73 % 0 lf 1009,5 hPa 0,0 l/m 2 min 0 min 281 W/m 8,4 km/h (2 Bft) 100,00 %
12.04.2016 10:14 14,7 C 17,8 C 15,6 C 72 % 0 lf 1009,5 hPa 0,0 l/m 2 min 0 min 279 W/m 8,4 km/h (2 Bft) 95,74 %
12.04.2016 10:16 14,7 C 17,8 C 15,0 C 72 % 0 lf 1009,5 hPa 0,0 l/m 0 min 0 min 233 W/m 8,4 km/h (2 Bft) 95,12 %
12.04.2016 10:18 14,7 C 16,1 C 14,4 C 72 % 0 lf 1009,5 hPa 0,0 l/m 0 min 0 min 190 W/m 10,5 km/h (2 Bft) 97,83 %
12.04.2016 10:20 14,7 C 15,6 C 13,9 C 72 % 0 lf 1009,5 hPa 0,0 l/m 0 min 0 min 151 W/m 8,4 km/h (2 Bft) 96,23 %
12.04.2016 10:22 14,7 C 15,6 C 13,9 C 72 % 0 lf 1009,5 hPa 0,0 l/m 0 min 0 min 120 W/m 4,2 km/h (1 Bft) 97,87 %
12.04.2016 10:24 14,7 C 17,2 C 15,0 C 71 % 0 lf 1009,5 hPa 0,0 l/m 0 min 0 min 109 W/m 6,3 km/h (2 Bft) 95,74 %
12.04.2016 10:26 14,7 C 18,3 C 16,1 C 71 % 0 lf 1009,5 hPa 0,0 l/m 0 min 0 min 145 W/m 4,2 km/h (1 Bft) 95,12 %
12.04.2016 10:28 14,7 C 20,0 C 17,8 C 72 % 0 lf 1009,4 hPa 0,0 l/m 2 min 0 min 406 W/m 10,5 km/h (2 Bft) 98,11 %
12.04.2016 10:30 14,8 C 22,2 C 19,4 C 73 % 0 lf 1009,4 hPa 0,0 l/m 2 min 0 min 573 W/m 10,5 km/h (2 Bft) 97,87 %
12.04.2016 10:32 14,9 C 21,7 C 20,6 C 72 % 0 lf 1009,4 hPa 0,0 l/m 2 min 0 min 577 W/m 10,5 km/h (2 Bft) 95,74 %
12.04.2016 10:34 15,0 C 21,1 C 20,6 C 71 % 0 lf 1009,4 hPa 0,0 l/m 2 min 0 min 590 W/m 10,5 km/h (2 Bft) 93,62 %
12.04.2016 10:36 15,1 C 23,3 C 20,0 C 72 % 0 lf 1009,4 hPa 0,0 l/m 2 min 0 min 597 W/m 12,6 km/h (3 Bft) 93,62 %
12.04.2016 10:38 15,2 C 25,6 C 20,6 C 72 % 0 lf 1009,4 hPa 0,0 l/m 2 min 0 min 594 W/m 6,3 km/h (2 Bft) 95,65 %
12.04.2016 10:40 15,3 C 26,1 C 21,1 C 71 % 0 lf 1009,4 hPa 0,0 l/m 2 min 0 min 595 W/m 8,4 km/h (2 Bft) 95,74 %
12.04.2016 10:42 15,4 C 23,3 C 21,7 C 70 % 0 lf 1009,4 hPa 0,0 l/m 2 min 0 min 598 W/m 14,6 km/h (3 Bft) 95,74 %
12.04.2016 10:44 15,6 C 23,3 C 21,7 C 69 % 0 lf 1009,4 hPa 0,0 l/m 2 min 0 min 605 W/m 12,6 km/h (3 Bft) 95,74 %
12.04.2016 10:46 15,7 C 26,1 C 22,2 C 70 % 0 lf 1009,4 hPa 0,0 l/m 2 min 0 min 630 W/m 10,5 km/h (2 Bft) 93,62 %
12.04.2016 10:48 15,9 C 25,6 C 22,8 C 70 % 0 lf 1009,4 hPa 0,0 l/m 2 min 0 min 661 W/m 10,5 km/h (2 Bft) 95,65 %
12.04.2016 10:50 16,0 C 25,0 C 22,8 C 68 % 0 lf 1009,4 hPa 0,0 l/m 2 min 0 min 652 W/m 4,2 km/h (1 Bft) 93,48 %
12.04.2016 10:52 16,1 C 27,2 C 22,2 C 69 % 0 lf 1009,4 hPa 0,0 l/m 2 min 0 min 641 W/m 10,5 km/h (2 Bft) 95,74 %
12.04.2016 10:54 16,3 C 26,7 C 21,7 C 68 % 0 lf 1009,4 hPa 0,0 l/m 2 min 0 min 672 W/m 10,5 km/h (2 Bft) 91,49 %
12.04.2016 10:56 16,4 C 27,2 C 22,8 C 69 % 0 lf 1009,4 hPa 0,0 l/m 2 min 0 min 692 W/m 8,4 km/h (2 Bft) 95,74 %
12.04.2016 10:58 16,6 C 28,3 C 22,2 C 68 % 0 lf 1009,4 hPa 0,0 l/m 2 min 0 min 735 W/m 12,6 km/h (3 Bft) 93,62 %
12.04.2016 11:00 16,7 C 28,3 C 22,2 C 68 % 0 lf 1009,4 hPa 0,0 l/m 2 min 0 min 729 W/m 16,7 km/h (3 Bft) 95,74 %
12.04.2016 11:02 16,9 C 27,8 C 20,0 C 67 % 0 lf 1009,4 hPa 0,0 l/m 2 min 0 min 728 W/m 16,7 km/h (3 Bft) 95,65 %
12.04.2016 11:04 16,9 C 25,0 C 18,3 C 66 % 0 lf 1009,3 hPa 0,0 l/m 2 min 0 min 728 W/m 6,3 km/h (2 Bft) 95,74 %
12.04.2016 11:06 17,0 C 23,9 C 17,2 C 65 % 0 lf 1009,3 hPa 0,0 l/m 0 min 0 min 192 W/m 10,5 km/h (2 Bft) 95,74 %
12.04.2016 11:08 17,1 C 25,0 C 17,2 C 65 % 0 lf 1009,3 hPa 0,0 l/m 2 min 0 min 504 W/m 10,5 km/h (2 Bft) 95,74 %
12.04.2016 11:10 17,1 C 26,1 C 17,8 C 65 % 0 lf 1009,3 hPa 0,0 l/m 2 min 0 min 665 W/m 14,6 km/h (3 Bft) 93,62 %
12.04.2016 11:12 17,1 C 27,8 C 18,3 C 65 % 0 lf 1009,3 hPa 0,0 l/m 2 min 0 min 668 W/m 14,6 km/h (3 Bft) 95,74 %
12.04.2016 11:14 17,2 C 26,7 C 18,9 C 65 % 0 lf 1009,3 hPa 0,0 l/m 2 min 0 min 687 W/m 18,8 km/h (3 Bft) 95,65 %
12.04.2016 11:16 17,2 C 25,6 C 19,4 C 64 % 0 lf 1009,2 hPa 0,0 l/m 2 min 0 min 697 W/m 18,8 km/h (3 Bft) 95,74 %
12.04.2016 11:18 17,2 C 26,1 C 20,6 C 64 % 0 lf 1009,2 hPa 0,0 l/m 2 min 0 min 701 W/m 14,6 km/h (3 Bft) 100,00 %
12.04.2016 11:20 17,2 C 25,6 C 21,7 C 63 % 0 lf 1009,3 hPa 0,0 l/m 2 min 0 min 709 W/m 10,5 km/h (2 Bft) 97,87 %
12.04.2016 11:22 17,2 C 26,7 C 22,2 C 64 % 0 lf 1009,2 hPa 0,0 l/m 2 min 0 min 705 W/m 8,4 km/h (2 Bft) 100,00 %
12.04.2016 11:24 17,3 C 26,7 C 21,7 C 64 % 0 lf 1009,2 hPa 0,0 l/m 2 min 0 min 701 W/m 14,6 km/h (3 Bft) 97,87 %
12.04.2016 11:26 17,3 C 25,6 C 22,2 C 63 % 0 lf 1009,2 hPa 0,0 l/m 2 min 0 min 707 W/m 10,5 km/h (2 Bft) 93,48 %
12.04.2016 11:28 17,4 C 27,2 C 22,2 C 63 % 0 lf 1009,2 hPa 0,0 l/m 2 min 0 min 726 W/m 23,0 km/h (4 Bft) 97,87 %
12.04.2016 11:30 17,5 C 27,2 C 21,7 C 63 % 0 lf 1009,1 hPa 0,0 l/m 2 min 0 min 743 W/m 18,8 km/h (3 Bft) 97,87 %
12.04.2016 11:32 17,6 C 28,3 C 22,8 C 62 % 0 lf 1009,1 hPa 0,0 l/m 2 min 0 min 745 W/m 18,8 km/h (3 Bft) 95,74 %
12.04.2016 11:34 17,6 C 27,8 C 22,8 C 62 % 0 lf 1009,1 hPa 0,0 l/m 2 min 0 min 753 W/m 10,5 km/h (2 Bft) 95,74 %
12.04.2016 11:36 17,7 C 22,8 C 20,0 C 61 % 0 lf 1009,1 hPa 0,0 l/m 2 min 0 min 389 W/m 18,8 km/h (3 Bft) 97,87 %
12.04.2016 11:38 17,7 C 22,8 C 20,6 C 61 % 0 lf 1009,0 hPa 0,0 l/m 0 min 0 min 318 W/m 12,6 km/h (3 Bft) 97,83 %
12.04.2016 11:40 17,7 C 25,0 C 21,1 C 61 % 0 lf 1009,1 hPa 0,0 l/m 2 min 0 min 755 W/m 10,5 km/h (2 Bft) 97,87 %
12.04.2016 11:43 17,8 C 27,8 C 23,3 C 62 % 0 lf 1009,0 hPa 0,0 l/m 2 min 0 min 737 W/m 16,7 km/h (3 Bft) 97,56 %
12.04.2016 11:44 17,8 C 27,8 C 23,3 C 62 % 0 lf 1009,0 hPa 0,0 l/m 1 min 0 min 744 W/m 14,6 km/h (3 Bft) 100,00 %
12.04.2016 11:46 17,9 C 28,9 C 23,9 C 62 % 0 lf 1009,0 hPa 0,0 l/m 2 min 0 min 758 W/m 18,8 km/h (3 Bft) 93,88 %
12.04.2016 11:48 18,0 C 27,8 C 24,4 C 63 % 0 lf 1009,0 hPa 0,0 l/m 2 min 0 min 766 W/m 12,6 km/h (3 Bft) 97,83 %
12.04.2016 11:50 18,0 C 25,0 C 23,9 C 60 % 0 lf 1008,9 hPa 0,0 l/m 2 min 0 min 779 W/m 10,5 km/h (2 Bft) 93,62 %
12.04.2016 11:52 18,0 C 25,6 C 23,9 C 60 % 0 lf 1008,9 hPa 0,0 l/m 2 min 0 min 776 W/m 18,8 km/h (3 Bft) 97,87 %
12.04.2016 11:54 18,1 C 26,7 C 23,3 C 60 % 0 lf 1008,9 hPa 0,0 l/m 2 min 0 min 776 W/m 16,7 km/h (3 Bft) 95,74 %
12.04.2016 11:56 18,1 C 24,4 C 21,1 C 60 % 0 lf 1008,9 hPa 0,0 l/m 2 min 0 min 578 W/m 12,6 km/h (3 Bft) 97,87 %
12.04.2016 11:58 18,1 C 22,2 C 20,0 C 59 % 0 lf 1008,9 hPa 0,0 l/m 0 min 0 min 219 W/m 23,0 km/h (4 Bft) 97,87 %
12.04.2016 12:00 18,1 C 22,2 C 21,7 C 59 % 0 lf 1008,9 hPa 0,0 l/m 0 min 0 min 333 W/m 18,8 km/h (3 Bft) 97,83 %
12.04.2016 12:02 18,1 C 22,8 C 22,8 C 59 % 0 lf 1008,9 hPa 0,0 l/m 2 min 0 min 772 W/m 14,6 km/h (3 Bft) 97,87 %
12.04.2016 12:04 18,1 C 24,4 C 23,9 C 59 % 0 lf 1008,8 hPa 0,0 l/m 2 min 0 min 752 W/m 14,6 km/h (3 Bft) 97,92 %
12.04.2016 12:06 18,1 C 26,1 C 24,4 C 60 % 0 lf 1008,8 hPa 0,0 l/m 2 min 0 min 617 W/m 10,5 km/h (2 Bft) 95,74 %
12.04.2016 12:08 18,2 C 27,8 C 23,3 C 60 % 0 lf 1008,8 hPa 0,0 l/m 0 min 0 min 163 W/m 20,9 km/h (4 Bft) 95,92 %
12.04.2016 12:10 18,2 C 27,2 C 23,9 C 60 % 0 lf 1008,8 hPa 0,0 l/m 2 min 0 min 724 W/m 18,8 km/h (3 Bft) 97,83 %
12.04.2016 12:12 18,3 C 27,8 C 24,4 C 59 % 0 lf 1008,8 hPa 0,0 l/m 2 min 0 min 773 W/m 14,6 km/h (3 Bft) 95,74 %
12.04.2016 12:14 18,4 C 28,9 C 24,4 C 61 % 0 lf 1008,8 hPa 0,0 l/m 2 min 0 min 781 W/m 10,5 km/h (2 Bft) 95,74 %
12.04.2016 12:16 18,6 C 28,9 C 23,9 C 60 % 0 lf 1008,8 hPa 0,0 l/m 2 min 0 min 783 W/m 23,0 km/h (4 Bft) 97,87 %
12.04.2016 12:18 18,6 C 28,3 C 23,9 C 58 % 0 lf 1008,8 hPa 0,0 l/m 2 min 0 min 789 W/m 20,9 km/h (4 Bft) 97,87 %
12.04.2016 12:20 18,7 C 29,4 C 23,3 C 57 % 0 lf 1008,7 hPa 0,0 l/m 2 min 0 min 813 W/m 18,8 km/h (3 Bft) 97,87 %
12.04.2016 12:22 18,7 C 28,9 C 24,4 C 57 % 0 lf 1008,7 hPa 0,0 l/m 2 min 0 min 848 W/m 25,1 km/h (4 Bft) 93,48 %
12.04.2016 12:24 18,7 C 26,1 C 23,3 C 56 % 0 lf 1008,8 hPa 0,0 l/m 2 min 0 min 843 W/m 23,0 km/h (4 Bft) 91,49 %
12.04.2016 12:26 18,7 C 23,3 C 22,2 C 56 % 0 lf 1008,8 hPa 0,0 l/m 2 min 0 min 840 W/m 27,2 km/h (4 Bft) 95,74 %
12.04.2016 12:28 18,7 C 25,0 C 22,8 C 57 % 0 lf 1008,8 hPa 0,0 l/m 2 min 0 min 828 W/m 23,0 km/h (4 Bft) 97,87 %
12.04.2016 12:30 18,7 C 25,6 C 21,7 C 56 % 0 lf 1008,7 hPa 0,0 l/m 2 min 0 min 840 W/m 18,8 km/h (3 Bft) 95,74 %
12.04.2016 12:32 18,6 C 23,3 C 20,0 C 56 % 0 lf 1008,7 hPa 0,0 l/m 2 min 0 min 608 W/m 27,2 km/h (4 Bft) 97,87 %
12.04.2016 12:34 18,6 C 25,0 C 20,6 C 56 % 0 lf 1008,8 hPa 0,0 l/m 0 min 0 min 350 W/m 16,7 km/h (3 Bft) 95,65 %
12.04.2016 12:36 18,6 C 26,7 C 21,7 C 58 % 0 lf 1008,8 hPa 0,0 l/m 2 min 0 min 819 W/m 16,7 km/h (3 Bft) 97,87 %
12.04.2016 12:38 18,6 C 27,2 C 22,2 C 57 % 0 lf 1008,8 hPa 0,0 l/m 2 min 0 min 778 W/m 20,9 km/h (4 Bft) 97,87 %
12.04.2016 12:40 18,7 C 26,1 C 22,8 C 56 % 0 lf 1008,7 hPa 0,0 l/m 2 min 0 min 792 W/m 18,8 km/h (3 Bft) 93,62 %
12.04.2016 12:42 18,7 C 27,2 C 22,2 C 57 % 0 lf 1008,8 hPa 0,0 l/m 2 min 0 min 804 W/m 25,1 km/h (4 Bft) 97,87 %
12.04.2016 12:44 18,7 C 26,1 C 22,2 C 56 % 0 lf 1008,8 hPa 0,0 l/m 2 min 0 min 807 W/m 25,1 km/h (4 Bft) 97,87 %
12.04.2016 12:46 18,8 C 27,2 C 23,3 C 55 % 0 lf 1008,8 hPa 0,0 l/m 2 min 0 min 831 W/m 18,8 km/h (3 Bft) 95,65 %
12.04.2016 12:48 18,8 C 27,8 C 23,9 C 56 % 0 lf 1008,7 hPa 0,0 l/m 2 min 0 min 832 W/m 16,7 km/h (3 Bft) 93,62 %
12.04.2016 12:50 18,8 C 27,2 C 22,8 C 55 % 0 lf 1008,7 hPa 0,0 l/m 2 min 0 min 825 W/m 25,1 km/h (4 Bft) 97,87 %
12.04.2016 12:52 18,9 C 26,7 C 22,8 C 55 % 0 lf 1008,7 hPa 0,0 l/m 2 min 0 min 801 W/m 27,2 km/h (4 Bft) 97,87 %
12.04.2016 12:54 18,9 C 26,1 C 22,8 C 55 % 0 lf 1008,7 hPa 0,0 l/m 2 min 0 min 714 W/m 20,9 km/h (4 Bft) 97,87 %
12.04.2016 12:56 18,9 C 27,2 C 22,2 C 56 % 0 lf 1008,7 hPa 0,0 l/m 2 min 0 min 671 W/m 12,6 km/h (3 Bft) 97,87 %
12.04.2016 12:58 19,0 C 27,8 C 22,8 C 56 % 0 lf 1008,7 hPa 0,0 l/m 2 min 0 min 705 W/m 12,6 km/h (3 Bft) 95,65 %
12.04.2016 13:00 19,1 C 27,8 C 22,2 C 57 % 0 lf 1008,7 hPa 0,0 l/m 2 min 0 min 770 W/m 16,7 km/h (3 Bft) 100,00 %
12.04.2016 13:02 19,2 C 27,8 C 21,1 C 56 % 0 lf 1008,7 hPa 0,0 l/m 2 min 0 min 775 W/m 16,7 km/h (3 Bft) 95,74 %
12.04.2016 13:04 19,2 C 26,7 C 20,6 C 56 % 0 lf 1008,7 hPa 0,0 l/m 2 min 0 min 775 W/m 20,9 km/h (4 Bft) 95,74 %
12.04.2016 13:06 19,2 C 26,1 C 21,7 C 55 % 0 lf 1008,6 hPa 0,0 l/m 2 min 0 min 842 W/m 18,8 km/h (3 Bft) 97,87 %
12.04.2016 13:08 19,3 C 27,2 C 22,2 C 56 % 0 lf 1008,6 hPa 0,0 l/m 2 min 0 min 837 W/m 23,0 km/h (4 Bft) 100,00 %
12.04.2016 13:10 19,3 C 27,8 C 21,7 C 56 % 0 lf 1008,6 hPa 0,0 l/m 2 min 0 min 789 W/m 20,9 km/h (4 Bft) 95,65 %
12.04.2016 13:12 19,4 C 28,3 C 21,1 C 54 % 0 lf 1008,6 hPa 0,0 l/m 2 min 0 min 756 W/m 16,7 km/h (3 Bft) 95,74 %
12.04.2016 13:14 19,4 C 29,4 C 20,0 C 54 % 0 lf 1008,6 hPa 0,0 l/m 2 min 0 min 796 W/m 12,6 km/h (3 Bft) 97,87 %
12.04.2016 13:16 19,4 C 28,3 C 19,4 C 54 % 0 lf 1008,6 hPa 0,0 l/m 2 min 0 min 773 W/m 27,2 km/h (4 Bft) 95,74 %
12.04.2016 13:18 19,5 C 26,1 C 19,4 C 53 % 0 lf 1008,6 hPa 0,0 l/m 2 min 0 min 714 W/m 18,8 km/h (3 Bft) 93,62 %
12.04.2016 13:20 19,4 C 26,7 C 19,4 C 53 % 0 lf 1008,6 hPa 0,0 l/m 2 min 0 min 764 W/m 20,9 km/h (4 Bft) 93,48 %
12.04.2016 13:22 19,4 C 26,1 C 19,4 C 53 % 0 lf 1008,5 hPa 0,0 l/m 2 min 0 min 696 W/m 14,6 km/h (3 Bft) 95,74 %
12.04.2016 13:24 19,4 C 23,9 C 18,9 C 51 % 0 lf 1008,6 hPa 0,0 l/m 2 min 0 min 755 W/m 27,2 km/h (4 Bft) 95,74 %
12.04.2016 13:26 19,4 C 24,4 C 18,9 C 51 % 0 lf 1008,6 hPa 0,0 l/m 2 min 0 min 740 W/m 20,9 km/h (4 Bft) 95,74 %
12.04.2016 13:28 19,4 C 24,4 C 18,9 C 52 % 0 lf 1008,6 hPa 0,0 l/m 2 min 0 min 753 W/m 23,0 km/h (4 Bft) 91,49 %
12.04.2016 13:30 19,3 C 22,2 C 17,8 C 52 % 0 lf 1008,5 hPa 0,0 l/m 2 min 0 min 537 W/m 27,2 km/h (4 Bft) 93,62 %
12.04.2016 13:32 19,3 C 23,3 C 17,8 C 53 % 0 lf 1008,5 hPa 0,0 l/m 0 min 0 min 190 W/m 16,7 km/h (3 Bft) 93,48 %
12.04.2016 13:34 19,2 C 23,9 C 17,8 C 53 % 0 lf 1008,5 hPa 0,0 l/m 0 min 0 min 246 W/m 23,0 km/h (4 Bft) 91,49 %
12.04.2016 13:36 19,2 C 24,4 C 17,8 C 53 % 0 lf 1008,5 hPa 0,0 l/m 2 min 0 min 721 W/m 16,7 km/h (3 Bft) 95,74 %
12.04.2016 13:38 19,1 C 23,9 C 18,3 C 52 % 0 lf 1008,5 hPa 0,0 l/m 2 min 0 min 852 W/m 16,7 km/h (3 Bft) 95,74 %
12.04.2016 13:40 19,1 C 23,9 C 17,8 C 53 % 0 lf 1008,4 hPa 0,0 l/m 2 min 0 min 840 W/m 16,7 km/h (3 Bft) 95,74 %
12.04.2016 13:42 19,1 C 23,3 C 17,8 C 51 % 0 lf 1008,4 hPa 0,0 l/m 2 min 0 min 838 W/m 16,7 km/h (3 Bft) 95,74 %
12.04.2016 13:44 19,1 C 22,2 C 17,8 C 50 % 0 lf 1008,4 hPa 0,0 l/m 2 min 0 min 823 W/m 16,7 km/h (3 Bft) 95,65 %
12.04.2016 13:46 19,1 C 22,8 C 17,8 C 53 % 0 lf 1008,4 hPa 0,0 l/m 2 min 0 min 809 W/m 12,6 km/h (3 Bft) 93,62 %
12.04.2016 13:48 19,0 C 21,1 C 17,8 C 51 % 0 lf 1008,3 hPa 0,0 l/m 0 min 0 min 304 W/m 8,4 km/h (2 Bft) 87,23 %
12.04.2016 13:50 18,9 C 22,8 C 17,2 C 52 % 0 lf 1008,4 hPa 0,0 l/m 0 min 0 min 194 W/m 12,6 km/h (3 Bft) 95,74 %
12.04.2016 13:52 18,9 C 22,8 C 17,8 C 52 % 0 lf 1008,4 hPa 0,0 l/m 0 min 0 min 195 W/m 12,6 km/h (3 Bft) 95,74 %
12.04.2016 13:54 18,9 C 22,8 C 18,3 C 50 % 0 lf 1008,3 hPa 0,0 l/m 2 min 0 min 718 W/m 18,8 km/h (3 Bft) 91,49 %
12.04.2016 13:56 18,9 C 24,4 C 18,3 C 52 % 0 lf 1008,3 hPa 0,0 l/m 2 min 0 min 839 W/m 16,7 km/h (3 Bft) 95,65 %
12.04.2016 13:58 19,0 C 27,2 C 18,3 C 51 % 0 lf 1008,2 hPa 0,0 l/m 2 min 0 min 845 W/m 18,8 km/h (3 Bft) 93,62 %
12.04.2016 14:00 19,1 C 27,2 C 18,9 C 48 % 0 lf 1008,2 hPa 0,0 l/m 2 min 0 min 851 W/m 33,5 km/h (5 Bft) 95,74 %
12.04.2016 14:02 19,2 C 26,7 C 18,3 C 47 % 0 lf 1008,2 hPa 0,0 l/m 2 min 0 min 837 W/m 31,4 km/h (5 Bft) 91,49 %
12.04.2016 14:04 19,3 C 26,7 C 18,9 C 48 % 0 lf 1008,2 hPa 0,0 l/m 2 min 0 min 868 W/m 25,1 km/h (4 Bft) 91,49 %
12.04.2016 14:06 19,4 C 25,6 C 18,9 C 44 % 0 lf 1008,1 hPa 0,0 l/m 2 min 0 min 857 W/m 27,2 km/h (4 Bft) 93,62 %
12.04.2016 14:08 19,5 C 27,8 C 18,9 C 46 % 0 lf 1008,1 hPa 0,0 l/m 2 min 0 min 841 W/m 16,7 km/h (3 Bft) 93,48 %
12.04.2016 14:10 19,6 C 26,1 C 18,9 C 45 % 0 lf 1008,1 hPa 0,0 l/m 2 min 0 min 765 W/m 18,8 km/h (3 Bft) 93,62 %
12.04.2016 14:12 19,7 C 27,2 C 18,9 C 47 % 0 lf 1008,1 hPa 0,0 l/m 2 min 0 min 756 W/m 14,6 km/h (3 Bft) 95,74 %
12.04.2016 14:14 19,8 C 26,7 C 18,9 C 45 % 0 lf 1008,1 hPa 0,0 l/m 2 min 0 min 798 W/m 14,6 km/h (3 Bft) 93,62 %
12.04.2016 14:16 19,9 C 26,7 C 18,9 C 45 % 0 lf 1008,0 hPa 0,0 l/m 2 min 0 min 805 W/m 33,5 km/h (5 Bft) 97,87 %
12.04.2016 14:18 20,0 C 26,7 C 18,9 C 46 % 0 lf 1008,0 hPa 0,0 l/m 2 min 0 min 821 W/m 31,4 km/h (5 Bft) 97,87 %
12.04.2016 14:20 20,1 C 27,2 C 18,9 C 46 % 0 lf 1008,0 hPa 0,0 l/m 2 min 0 min 824 W/m 23,0 km/h (4 Bft) 95,65 %
12.04.2016 14:22 20,2 C 28,9 C 18,9 C 47 % 0 lf 1007,9 hPa 0,0 l/m 2 min 0 min 828 W/m 18,8 km/h (3 Bft) 95,74 %
12.04.2016 14:24 20,3 C 27,2 C 18,9 C 46 % 0 lf 1007,9 hPa 0,0 l/m 2 min 0 min 789 W/m 23,0 km/h (4 Bft) 97,87 %
12.04.2016 14:26 20,3 C 26,1 C 18,3 C 44 % 0 lf 1007,9 hPa 0,0 l/m 2 min 0 min 761 W/m 27,2 km/h (4 Bft) 97,87 %
12.04.2016 14:28 20,3 C 27,8 C 18,9 C 46 % 0 lf 1007,9 hPa 0,0 l/m 2 min 0 min 750 W/m 23,0 km/h (4 Bft) 97,87 %
12.04.2016 14:30 20,3 C 27,8 C 18,3 C 45 % 0 lf 1007,9 hPa 0,0 l/m 2 min 0 min 760 W/m 29,3 km/h (5 Bft) 97,87 %
12.04.2016 14:32 20,4 C 28,3 C 18,9 C 45 % 0 lf 1007,8 hPa 0,0 l/m 2 min 0 min 789 W/m 14,6 km/h (3 Bft) 97,83 %
12.04.2016 14:34 20,5 C 28,9 C 18,9 C 45 % 0 lf 1007,9 hPa 0,0 l/m 2 min 0 min 784 W/m 18,8 km/h (3 Bft) 97,87 %
12.04.2016 14:36 20,6 C 28,3 C 18,9 C 45 % 0 lf 1007,9 hPa 0,0 l/m 2 min 0 min 769 W/m 20,9 km/h (4 Bft) 97,87 %
12.04.2016 14:38 20,6 C 27,2 C 18,9 C 44 % 0 lf 1007,9 hPa 0,0 l/m 2 min 0 min 782 W/m 23,0 km/h (4 Bft) 97,87 %
12.04.2016 14:40 20,7 C 27,8 C 18,9 C 44 % 0 lf 1007,9 hPa 0,0 l/m 2 min 0 min 779 W/m 20,9 km/h (4 Bft) 100,00 %
12.04.2016 14:42 20,7 C 28,9 C 18,9 C 45 % 0 lf 1007,9 hPa 0,0 l/m 2 min 0 min 778 W/m 12,6 km/h (3 Bft) 100,00 %
12.04.2016 14:44 20,8 C 28,3 C 18,3 C 43 % 0 lf 1007,8 hPa 0,0 l/m 2 min 0 min 774 W/m 23,0 km/h (4 Bft) 100,00 %
12.04.2016 14:46 20,8 C 28,3 C 18,3 C 43 % 0 lf 1007,8 hPa 0,0 l/m 2 min 0 min 769 W/m 20,9 km/h (4 Bft) 100,00 %
12.04.2016 14:48 20,8 C 26,1 C 18,3 C 41 % 0 lf 1007,9 hPa 0,0 l/m 2 min 0 min 763 W/m 23,0 km/h (4 Bft) 100,00 %
12.04.2016 14:50 20,7 C 26,1 C 18,3 C 42 % 0 lf 1007,9 hPa 0,0 l/m 2 min 0 min 766 W/m 18,8 km/h (3 Bft) 95,74 %
12.04.2016 14:52 20,7 C 27,2 C 18,3 C 42 % 0 lf 1007,8 hPa 0,0 l/m 2 min 0 min 760 W/m 18,8 km/h (3 Bft) 95,74 %
12.04.2016 14:54 20,8 C 28,9 C 18,3 C 43 % 0 lf 1007,9 hPa 0,0 l/m 2 min 0 min 759 W/m 18,8 km/h (3 Bft) 95,65 %
12.04.2016 14:56 20,8 C 27,2 C 18,3 C 41 % 0 lf 1007,7 hPa 0,0 l/m 2 min 0 min 759 W/m 23,0 km/h (4 Bft) 97,87 %
12.04.2016 14:58 20,9 C 28,9 C 18,3 C 43 % 0 lf 1007,7 hPa 0,0 l/m 2 min 0 min 758 W/m 27,2 km/h (4 Bft) 97,87 %
12.04.2016 15:00 20,9 C 27,8 C 18,3 C 43 % 0 lf 1007,6 hPa 0,0 l/m 2 min 0 min 756 W/m 23,0 km/h (4 Bft) 97,87 %
12.04.2016 15:02 20,9 C 27,2 C 18,3 C 43 % 0 lf 1007,7 hPa 0,0 l/m 2 min 0 min 745 W/m 23,0 km/h (4 Bft) 95,74 %
12.04.2016 15:04 20,9 C 27,2 C 18,3 C 43 % 0 lf 1007,7 hPa 0,0 l/m 2 min 0 min 743 W/m 20,9 km/h (4 Bft) 97,87 %
12.04.2016 15:06 20,9 C 27,8 C 18,3 C 42 % 0 lf 1007,7 hPa 0,0 l/m 2 min 0 min 741 W/m 16,7 km/h (3 Bft) 97,83 %
12.04.2016 15:08 20,9 C 28,9 C 18,3 C 43 % 0 lf 1007,7 hPa 0,0 l/m 2 min 0 min 738 W/m 23,0 km/h (4 Bft) 97,37 %
12.04.2016 15:10 21,0 C 28,9 C 18,3 C 45 % 0 lf 1007,6 hPa 0,0 l/m 2 min 0 min 735 W/m 18,8 km/h (3 Bft) 97,83 %
12.04.2016 15:12 21,0 C 28,9 C 18,3 C 44 % 0 lf 1007,6 hPa 0,0 l/m 2 min 0 min 730 W/m 18,8 km/h (3 Bft) 97,87 %
12.04.2016 15:14 21,1 C 27,2 C 18,3 C 43 % 0 lf 1007,6 hPa 0,0 l/m 2 min 0 min 727 W/m 25,1 km/h (4 Bft) 93,62 %
12.04.2016 15:16 21,0 C 26,7 C 18,3 C 43 % 0 lf 1007,5 hPa 0,0 l/m 2 min 0 min 724 W/m 18,8 km/h (3 Bft) 97,87 %
12.04.2016 15:18 21,0 C 27,8 C 18,3 C 43 % 0 lf 1007,5 hPa 0,0 l/m 2 min 0 min 725 W/m 18,8 km/h (3 Bft) 95,74 %
12.04.2016 15:20 21,0 C 28,3 C 18,3 C 42 % 0 lf 1007,5 hPa 0,0 l/m 2 min 0 min 724 W/m 14,6 km/h (3 Bft) 97,87 %
12.04.2016 15:22 21,0 C 27,2 C 18,9 C 41 % 0 lf 1007,5 hPa 0,0 l/m 2 min 0 min 721 W/m 29,3 km/h (5 Bft) 95,65 %
12.04.2016 15:24 21,0 C 26,1 C 18,9 C 41 % 0 lf 1007,5 hPa 0,0 l/m 2 min 0 min 723 W/m 18,8 km/h (3 Bft) 97,87 %
12.04.2016 15:26 20,9 C 27,2 C 18,9 C 42 % 0 lf 1007,3 hPa 0,0 l/m 2 min 0 min 724 W/m 14,6 km/h (3 Bft) 95,74 %
12.04.2016 15:28 21,0 C 28,9 C 18,9 C 44 % 0 lf 1007,4 hPa 0,0 l/m 2 min 0 min 716 W/m 18,8 km/h (3 Bft) 97,87 %
12.04.2016 15:30 21,1 C 28,3 C 18,9 C 42 % 0 lf 1007,3 hPa 0,0 l/m 2 min 0 min 708 W/m 18,8 km/h (3 Bft) 95,74 %
12.04.2016 15:32 21,1 C 27,2 C 18,9 C 41 % 0 lf 1007,3 hPa 0,0 l/m 2 min 0 min 718 W/m 23,0 km/h (4 Bft) 97,83 %
12.04.2016 15:34 21,1 C 27,2 C 18,9 C 41 % 0 lf 1007,2 hPa 0,0 l/m 2 min 0 min 711 W/m 18,8 km/h (3 Bft) 97,87 %
12.04.2016 15:36 21,1 C 28,3 C 18,9 C 42 % 0 lf 1007,1 hPa 0,0 l/m 2 min 0 min 704 W/m 12,6 km/h (3 Bft) 97,87 %
12.04.2016 15:38 21,1 C 27,8 C 18,9 C 42 % 0 lf 1007,2 hPa 0,0 l/m 2 min 0 min 701 W/m 16,7 km/h (3 Bft) 95,74 %
12.04.2016 15:40 21,1 C 26,7 C 18,9 C 42 % 0 lf 1007,1 hPa 0,0 l/m 2 min 0 min 693 W/m 16,7 km/h (3 Bft) 97,87 %
12.04.2016 15:42 21,1 C 26,7 C 18,9 C 42 % 0 lf 1007,1 hPa 0,0 l/m 2 min 0 min 678 W/m 14,6 km/h (3 Bft) 97,87 %
12.04.2016 15:44 21,1 C 26,7 C 18,9 C 42 % 0 lf 1007,1 hPa 0,0 l/m 2 min 0 min 646 W/m 20,9 km/h (4 Bft) 97,83 %
12.04.2016 15:46 21,1 C 26,7 C 18,9 C 41 % 0 lf 1007,1 hPa 0,0 l/m 2 min 0 min 684 W/m 16,7 km/h (3 Bft) 100,00 %
12.04.2016 15:48 21,1 C 25,6 C 18,9 C 41 % 0 lf 1007,1 hPa 0,0 l/m 2 min 0 min 668 W/m 14,6 km/h (3 Bft) 97,87 %
12.04.2016 15:50 21,1 C 25,0 C 18,3 C 40 % 0 lf 1007,1 hPa 0,0 l/m 2 min 0 min 516 W/m 10,5 km/h (2 Bft) 95,74 %
12.04.2016 15:52 21,0 C 27,2 C 18,3 C 41 % 0 lf 1007,0 hPa 0,0 l/m 2 min 0 min 622 W/m 8,4 km/h (2 Bft) 97,87 %
12.04.2016 15:54 21,1 C 27,8 C 18,3 C 41 % 0 lf 1007,0 hPa 0,0 l/m 2 min 0 min 675 W/m 10,5 km/h (2 Bft) 97,87 %
12.04.2016 15:56 21,1 C 28,3 C 18,9 C 42 % 0 lf 1007,0 hPa 0,0 l/m 2 min 0 min 648 W/m 18,8 km/h (3 Bft) 97,83 %
12.04.2016 15:58 21,1 C 26,7 C 18,9 C 41 % 0 lf 1007,0 hPa 0,0 l/m 2 min 0 min 659 W/m 18,8 km/h (3 Bft) 97,87 %
12.04.2016 16:00 21,0 C 27,2 C 18,9 C 41 % 0 lf 1006,9 hPa 0,0 l/m 2 min 0 min 602 W/m 10,5 km/h (2 Bft) 97,87 %
12.04.2016 16:02 21,0 C 28,3 C 18,9 C 43 % 0 lf 1006,9 hPa 0,0 l/m 2 min 0 min 616 W/m 10,5 km/h (2 Bft) 93,62 %
12.04.2016 16:04 21,0 C 27,2 C 18,3 C 43 % 0 lf 1006,9 hPa 0,0 l/m 2 min 0 min 431 W/m 16,7 km/h (3 Bft) 97,87 %
12.04.2016 16:06 21,0 C 25,0 C 18,3 C 42 % 0 lf 1007,0 hPa 0,0 l/m 0 min 0 min 229 W/m 14,6 km/h (3 Bft) 93,62 %
12.04.2016 16:08 20,9 C 23,9 C 17,8 C 42 % 0 lf 1006,9 hPa 0,0 l/m 0 min 0 min 232 W/m 12,6 km/h (3 Bft) 93,48 %
12.04.2016 16:10 20,8 C 22,2 C 17,8 C 41 % 0 lf 1006,9 hPa 0,0 l/m 0 min 0 min 213 W/m 6,3 km/h (2 Bft) 97,87 %
12.04.2016 16:12 20,8 C 22,2 C 17,8 C 42 % 0 lf 1006,9 hPa 0,0 l/m 0 min 0 min 209 W/m 12,6 km/h (3 Bft) 95,74 %
12.04.2016 16:14 20,6 C 21,1 C 17,2 C 43 % 0 lf 1006,9 hPa 0,0 l/m 0 min 0 min 209 W/m 18,8 km/h (3 Bft) 95,74 %
12.04.2016 16:16 20,5 C 21,1 C 17,2 C 44 % 0 lf 1006,9 hPa 0,0 l/m 0 min 0 min 215 W/m 16,7 km/h (3 Bft) 93,62 %
12.04.2016 16:18 20,3 C 21,1 C 17,8 C 44 % 0 lf 1006,8 hPa 0,0 l/m 0 min 0 min 232 W/m 10,5 km/h (2 Bft) 95,74 %
12.04.2016 16:20 20,3 C 21,1 C 17,8 C 44 % 0 lf 1006,8 hPa 0,0 l/m 0 min 0 min 265 W/m 10,5 km/h (2 Bft) 95,65 %
12.04.2016 16:22 20,2 C 22,2 C 18,3 C 44 % 0 lf 1006,8 hPa 0,0 l/m 2 min 0 min 314 W/m 6,3 km/h (2 Bft) 93,62 %
12.04.2016 16:24 20,2 C 22,8 C 18,3 C 43 % 0 lf 1006,7 hPa 0,0 l/m 2 min 0 min 315 W/m 4,2 km/h (1 Bft) 93,62 %
12.04.2016 16:26 20,1 C 22,2 C 18,3 C 43 % 0 lf 1006,7 hPa 0,0 l/m 2 min 0 min 302 W/m 4,2 km/h (1 Bft) 91,49 %
12.04.2016 16:28 20,1 C 22,2 C 18,3 C 44 % 0 lf 1006,7 hPa 0,0 l/m 0 min 0 min 254 W/m 8,4 km/h (2 Bft) 95,74 %
12.04.2016 16:30 20,1 C 22,2 C 18,3 C 45 % 0 lf 1006,7 hPa 0,0 l/m 0 min 0 min 237 W/m 8,4 km/h (2 Bft) 95,74 %
12.04.2016 16:32 20,0 C 22,2 C 18,3 C 46 % 0 lf 1006,7 hPa 0,0 l/m 0 min 0 min 227 W/m 10,5 km/h (2 Bft) 95,65 %
12.04.2016 16:34 20,0 C 21,7 C 18,3 C 46 % 0 lf 1006,7 hPa 0,0 l/m 0 min 0 min 227 W/m 14,6 km/h (3 Bft) 97,87 %
12.04.2016 16:36 19,9 C 21,1 C 18,3 C 45 % 0 lf 1006,7 hPa 0,0 l/m 0 min 0 min 235 W/m 10,5 km/h (2 Bft) 95,74 %
12.04.2016 16:38 19,9 C 22,2 C 18,3 C 46 % 0 lf 1006,7 hPa 0,0 l/m 0 min 0 min 252 W/m 8,4 km/h (2 Bft) 95,74 %
12.04.2016 16:40 19,9 C 23,3 C 18,3 C 47 % 0 lf 1006,6 hPa 0,0 l/m 2 min 0 min 282 W/m 10,5 km/h (2 Bft) 89,36 %
12.04.2016 16:42 19,9 C 23,3 C 18,3 C 46 % 0 lf 1006,6 hPa 0,0 l/m 2 min 0 min 279 W/m 12,6 km/h (3 Bft) 95,65 %
12.04.2016 16:44 19,9 C 22,2 C 18,3 C 45 % 0 lf 1006,6 hPa 0,0 l/m 0 min 0 min 258 W/m 12,6 km/h (3 Bft) 91,49 %
12.04.2016 16:46 19,9 C 21,7 C 18,3 C 46 % 0 lf 1006,5 hPa 0,0 l/m 0 min 0 min 255 W/m 10,5 km/h (2 Bft) 91,49 %
12.04.2016 16:48 19,9 C 21,1 C 18,3 C 46 % 0 lf 1006,5 hPa 0,0 l/m 0 min 0 min 241 W/m 8,4 km/h (2 Bft) 93,62 %
12.04.2016 16:50 19,8 C 21,1 C 18,3 C 44 % 0 lf 1006,5 hPa 0,0 l/m 0 min 0 min 219 W/m 4,2 km/h (1 Bft) 95,74 %
12.04.2016 16:52 19,8 C 21,1 C 18,3 C 45 % 0 lf 1006,4 hPa 0,0 l/m 0 min 0 min 206 W/m 12,6 km/h (3 Bft) 97,87 %
12.04.2016 16:54 19,8 C 20,6 C 17,8 C 46 % 0 lf 1006,4 hPa 0,0 l/m 0 min 0 min 186 W/m 14,6 km/h (3 Bft) 97,83 %
12.04.2016 16:56 19,8 C 20,6 C 17,8 C 47 % 0 lf 1006,4 hPa 0,0 l/m 0 min 0 min 166 W/m 14,6 km/h (3 Bft) 95,74 %
12.04.2016 16:58 19,8 C 20,6 C 17,8 C 46 % 0 lf 1006,4 hPa 0,0 l/m 0 min 0 min 151 W/m 6,3 km/h (2 Bft) 95,74 %
12.04.2016 17:00 19,7 C 20,6 C 17,8 C 46 % 0 lf 1006,4 hPa 0,0 l/m 0 min 0 min 140 W/m 4,2 km/h (1 Bft) 97,87 %
12.04.2016 17:02 19,7 C 20,0 C 17,8 C 46 % 0 lf 1006,3 hPa 0,0 l/m 0 min 0 min 128 W/m 4,2 km/h (1 Bft) 95,74 %
12.04.2016 17:04 19,7 C 20,0 C 17,2 C 46 % 0 lf 1006,4 hPa 0,0 l/m 0 min 0 min 120 W/m 8,4 km/h (2 Bft) 97,87 %
12.04.2016 17:06 19,6 C 19,4 C 17,2 C 46 % 0 lf 1006,3 hPa 0,0 l/m 0 min 0 min 118 W/m 10,5 km/h (2 Bft) 97,83 %
12.04.2016 17:08 19,6 C 19,4 C 17,2 C 46 % 0 lf 1006,3 hPa 0,0 l/m 0 min 0 min 117 W/m 6,3 km/h (2 Bft) 93,62 %
12.04.2016 17:10 19,5 C 19,4 C 17,2 C 45 % 0 lf 1006,3 hPa 0,0 l/m 0 min 0 min 112 W/m 6,3 km/h (2 Bft) 95,74 %
12.04.2016 17:12 19,5 C 19,4 C 17,2 C 46 % 0 lf 1006,3 hPa 0,0 l/m 0 min 0 min 106 W/m 8,4 km/h (2 Bft) 93,62 %
12.04.2016 17:14 19,4 C 19,4 C 16,7 C 47 % 0 lf 1006,3 hPa 0,0 l/m 0 min 0 min 111 W/m 8,4 km/h (2 Bft) 97,87 %
12.04.2016 17:16 19,4 C 19,4 C 16,7 C 46 % 0 lf 1006,3 hPa 0,0 l/m 0 min 0 min 131 W/m 6,3 km/h (2 Bft) 93,62 %
12.04.2016 17:18 19,3 C 19,4 C 17,2 C 47 % 0 lf 1006,3 hPa 0,0 l/m 0 min 0 min 153 W/m 6,3 km/h (2 Bft) 93,48 %
12.04.2016 17:20 19,2 C 19,4 C 17,2 C 45 % 0 lf 1006,3 hPa 0,0 l/m 0 min 0 min 174 W/m 4,2 km/h (1 Bft) 93,62 %
12.04.2016 17:22 19,2 C 20,0 C 17,2 C 46 % 0 lf 1006,3 hPa 0,0 l/m 0 min 0 min 183 W/m 8,4 km/h (2 Bft) 97,87 %
12.04.2016 17:24 19,2 C 20,0 C 17,2 C 46 % 0 lf 1006,3 hPa 0,0 l/m 0 min 0 min 178 W/m 8,4 km/h (2 Bft) 97,87 %
12.04.2016 17:26 19,1 C 20,0 C 17,2 C 46 % 0 lf 1006,3 hPa 0,0 l/m 0 min 0 min 159 W/m 6,3 km/h (2 Bft) 95,74 %
12.04.2016 17:28 19,1 C 20,0 C 17,2 C 46 % 0 lf 1006,3 hPa 0,0 l/m 0 min 0 min 133 W/m 4,2 km/h (1 Bft) 97,87 %
12.04.2016 17:30 19,1 C 20,0 C 17,2 C 47 % 0 lf 1006,3 hPa 0,0 l/m 0 min 0 min 113 W/m 6,3 km/h (2 Bft) 97,83 %
12.04.2016 17:32 19,1 C 19,4 C 16,7 C 46 % 0 lf 1006,4 hPa 0,0 l/m 0 min 0 min 99 W/m 6,3 km/h (2 Bft) 100,00 %
12.04.2016 17:34 19,0 C 19,4 C 16,7 C 47 % 0 lf 1006,3 hPa 0,0 l/m 0 min 0 min 82 W/m 6,3 km/h (2 Bft) 100,00 %
12.04.2016 17:36 18,9 C 19,4 C 16,7 C 46 % 0 lf 1006,3 hPa 0,0 l/m 0 min 0 min 68 W/m 6,3 km/h (2 Bft) 100,00 %
12.04.2016 17:38 18,9 C 18,9 C 16,7 C 46 % 0 lf 1006,3 hPa 0,0 l/m 0 min 0 min 60 W/m 6,3 km/h (2 Bft) 97,87 %
12.04.2016 17:40 18,9 C 18,9 C 16,7 C 46 % 0 lf 1006,3 hPa 0,0 l/m 0 min 0 min 53 W/m 6,3 km/h (2 Bft) 97,87 %
12.04.2016 17:42 18,8 C 18,9 C 16,1 C 46 % 0 lf 1006,3 hPa 0,0 l/m 0 min 0 min 47 W/m 4,2 km/h (1 Bft) 100,00 %
12.04.2016 17:44 18,8 C 18,3 C 16,1 C 47 % 0 lf 1006,3 hPa 0,0 l/m 0 min 0 min 44 W/m 4,2 km/h (1 Bft) 97,87 %
12.04.2016 17:46 18,8 C 18,3 C 16,1 C 48 % 0 lf 1006,3 hPa 0,0 l/m 0 min 0 min 44 W/m 6,3 km/h (2 Bft) 95,74 %
12.04.2016 17:48 18,7 C 18,3 C 16,1 C 48 % 0 lf 1006,3 hPa 0,0 l/m 0 min 0 min 42 W/m 6,3 km/h (2 Bft) 100,00 %
12.04.2016 17:50 18,7 C 18,3 C 15,6 C 49 % 0 lf 1006,3 hPa 0,0 l/m 0 min 0 min 38 W/m 8,4 km/h (2 Bft) 100,00 %
12.04.2016 17:52 18,6 C 17,8 C 15,6 C 49 % 0 lf 1006,3 hPa 0,0 l/m 0 min 0 min 33 W/m 4,2 km/h (1 Bft) 100,00 %
12.04.2016 17:54 18,6 C 17,8 C 15,6 C 48 % 0 lf 1006,2 hPa 0,0 l/m 0 min 0 min 28 W/m 6,3 km/h (2 Bft) 95,65 %
12.04.2016 17:56 18,5 C 17,8 C 15,6 C 49 % 0 lf 1006,3 hPa 0,0 l/m 0 min 0 min 26 W/m 8,4 km/h (2 Bft) 100,00 %
12.04.2016 17:58 18,4 C 17,8 C 15,6 C 49 % 0 lf 1006,3 hPa 0,0 l/m 0 min 0 min 24 W/m 12,6 km/h (3 Bft) 100,00 %
12.04.2016 18:00 18,4 C 17,8 C 15,6 C 49 % 0 lf 1006,3 hPa 0,0 l/m 0 min 0 min 22 W/m 14,6 km/h (3 Bft) 93,62 %
12.04.2016 18:02 18,3 C 17,2 C 15,0 C 50 % 0 lf 1006,4 hPa 0,0 l/m 0 min 0 min 19 W/m 16,7 km/h (3 Bft) 95,74 %
12.04.2016 18:04 18,2 C 17,2 C 15,0 C 51 % 0 lf 1006,4 hPa 0,0 l/m 0 min 0 min 17 W/m 16,7 km/h (3 Bft) 97,83 %
12.04.2016 18:06 18,1 C 16,7 C 15,0 C 51 % 0 lf 1006,5 hPa 0,0 l/m 0 min 0 min 15 W/m 14,6 km/h (3 Bft) 100,00 %
12.04.2016 18:08 17,9 C 16,7 C 15,0 C 52 % 0 lf 1006,7 hPa 0,0 l/m 0 min 0 min 12 W/m 14,6 km/h (3 Bft) 97,87 %
12.04.2016 18:10 17,8 C 16,7 C 15,0 C 52 % 0 lf 1006,9 hPa 0,0 l/m 0 min 0 min 10 W/m 20,9 km/h (4 Bft) 97,87 %
12.04.2016 18:12 17,6 C 15,6 C 13,9 C 55 % 0 lf 1007,2 hPa 0,0 l/m 0 min 0 min 8 W/m 56,5 km/h (7 Bft) 93,62 %
12.04.2016 18:14 17,1 C 14,4 C 13,3 C 59 % 0 lf 1007,2 hPa 0,0 l/m 0 min 0 min 8 W/m 52,3 km/h (7 Bft) 97,87 %
12.04.2016 18:16 16,4 C 13,9 C 12,8 C 61 % 0 lf 1007,4 hPa 0,0 l/m 0 min 0 min 11 W/m 50,2 km/h (7 Bft) 97,83 %
12.04.2016 18:18 15,9 C 13,3 C 12,2 C 64 % 0 lf 1007,3 hPa 0,0 l/m 0 min 0 min 17 W/m 48,1 km/h (6 Bft) 95,74 %
12.04.2016 18:20 15,3 C 13,3 C 11,7 C 67 % 15 lf 1007,5 hPa 0,0 l/m 0 min 2 min 25 W/m 50,2 km/h (7 Bft) 93,62 %
12.04.2016 18:22 14,8 C 11,7 C 10,6 C 71 % 15 lf 1007,5 hPa 0,0 l/m 0 min 2 min 32 W/m 50,2 km/h (7 Bft) 95,74 %
12.04.2016 18:24 14,3 C 10,6 C 10,0 C 73 % 15 lf 1007,5 hPa 0,0 l/m 0 min 2 min 37 W/m 41,8 km/h (6 Bft) 95,74 %
12.04.2016 18:26 13,9 C 10,6 C 10,0 C 75 % 15 lf 1007,6 hPa 0,0 l/m 0 min 2 min 44 W/m 35,6 km/h (5 Bft) 91,49 %
12.04.2016 18:28 13,5 C 10,6 C 9,4 C 77 % 15 lf 1007,5 hPa 0,0 l/m 0 min 2 min 50 W/m 43,9 km/h (6 Bft) 93,48 %
12.04.2016 18:30 13,1 C 10,6 C 9,4 C 79 % 15 lf 1007,6 hPa 0,0 l/m 0 min 2 min 54 W/m 35,6 km/h (5 Bft) 89,36 %
12.04.2016 18:32 12,8 C 10,6 C 9,4 C 81 % 15 lf 1007,6 hPa 0,0 l/m 0 min 2 min 53 W/m 46,0 km/h (6 Bft) 95,74 %
12.04.2016 18:34 12,6 C 10,6 C 9,4 C 82 % 15 lf 1007,6 hPa 0,0 l/m 0 min 2 min 44 W/m 33,5 km/h (5 Bft) 93,62 %
12.04.2016 18:36 12,4 C 10,6 C 9,4 C 83 % 15 lf 1007,7 hPa 0,0 l/m 0 min 2 min 32 W/m 37,7 km/h (5 Bft) 91,49 %
12.04.2016 18:38 12,2 C 10,6 C 9,4 C 84 % 15 lf 1007,7 hPa 0,0 l/m 0 min 2 min 22 W/m 35,6 km/h (5 Bft) 93,62 %
12.04.2016 18:40 12,1 C 10,6 C 9,4 C 85 % 15 lf 1007,7 hPa 0,0 l/m 0 min 2 min 18 W/m 35,6 km/h (5 Bft) 95,65 %
12.04.2016 18:42 11,9 C 10,0 C 9,4 C 85 % 15 lf 1007,9 hPa 0,0 l/m 0 min 2 min 13 W/m 29,3 km/h (5 Bft) 89,36 %
12.04.2016 18:44 11,8 C 10,0 C 9,4 C 86 % 15 lf 1008,0 hPa 0,0 l/m 0 min 2 min 11 W/m 37,7 km/h (5 Bft) 89,36 %
12.04.2016 18:46 11,7 C 10,0 C 9,4 C 86 % 15 lf 1008,1 hPa 0,0 l/m 0 min 2 min 10 W/m 33,5 km/h (5 Bft) 93,62 %
12.04.2016 18:48 11,7 C 10,0 C 9,4 C 87 % 15 lf 1008,1 hPa 0,0 l/m 0 min 2 min 8 W/m 23,0 km/h (4 Bft) 95,74 %
12.04.2016 18:50 11,6 C 10,0 C 9,4 C 87 % 15 lf 1008,2 hPa 0,0 l/m 0 min 2 min 7 W/m 31,4 km/h (5 Bft) 93,62 %
12.04.2016 18:52 11,5 C 10,0 C 9,4 C 87 % 15 lf 1008,2 hPa 0,0 l/m 0 min 2 min 7 W/m 18,8 km/h (3 Bft) 93,48 %
12.04.2016 18:54 11,4 C 10,0 C 9,4 C 88 % 15 lf 1008,3 hPa 0,0 l/m 0 min 2 min 7 W/m 16,7 km/h (3 Bft) 95,74 %
12.04.2016 18:56 11,4 C 10,0 C 9,4 C 88 % 15 lf 1008,3 hPa 0,0 l/m 0 min 2 min 7 W/m 18,8 km/h (3 Bft) 93,62 %
12.04.2016 18:58 11,3 C 10,0 C 9,4 C 88 % 15 lf 1008,4 hPa 0,0 l/m 0 min 2 min 9 W/m 29,3 km/h (5 Bft) 93,62 %
12.04.2016 19:00 11,3 C 10,0 C 9,4 C 88 % 15 lf 1008,4 hPa 0,0 l/m 0 min 2 min 9 W/m 20,9 km/h (4 Bft) 93,62 %
12.04.2016 19:02 11,3 C 10,0 C 9,4 C 88 % 15 lf 1008,5 hPa 0,2 l/m 0 min 2 min 11 W/m 20,9 km/h (4 Bft) 91,49 %
12.04.2016 19:04 11,3 C 10,0 C 9,4 C 89 % 15 lf 1008,4 hPa 0,0 l/m 0 min 2 min 11 W/m 20,9 km/h (4 Bft) 95,65 %
12.04.2016 19:06 11,2 C 10,0 C 9,4 C 89 % 15 lf 1008,4 hPa 0,0 l/m 0 min 2 min 9 W/m 14,6 km/h (3 Bft) 95,74 %
12.04.2016 19:08 11,2 C 10,0 C 9,4 C 89 % 15 lf 1008,4 hPa 0,0 l/m 0 min 2 min 9 W/m 16,7 km/h (3 Bft) 97,87 %
12.04.2016 19:10 11,2 C 10,0 C 9,4 C 89 % 15 lf 1008,4 hPa 0,2 l/m 0 min 2 min 7 W/m 18,8 km/h (3 Bft) 97,87 %
12.04.2016 19:12 11,2 C 10,0 C 8,9 C 89 % 15 lf 1008,4 hPa 0,0 l/m 0 min 2 min 7 W/m 16,7 km/h (3 Bft) 89,36 %
12.04.2016 19:14 11,2 C 10,0 C 9,4 C 89 % 15 lf 1008,4 hPa 0,0 l/m 0 min 2 min 5 W/m 18,8 km/h (3 Bft) 97,83 %
12.04.2016 19:16 11,2 C 10,0 C 9,4 C 89 % 15 lf 1008,5 hPa 0,2 l/m 0 min 2 min 5 W/m 16,7 km/h (3 Bft) 97,87 %
12.04.2016 19:18 11,1 C 10,0 C 9,4 C 90 % 15 lf 1008,5 hPa 0,0 l/m 0 min 2 min 2 W/m 16,7 km/h (3 Bft) 95,74 %
12.04.2016 19:20 11,1 C 10,0 C 8,9 C 90 % 15 lf 1008,5 hPa 0,0 l/m 0 min 2 min 0 W/m 20,9 km/h (4 Bft) 97,87 %
12.04.2016 19:22 11,1 C 10,0 C 8,9 C 90 % 15 lf 1008,5 hPa 0,0 l/m 0 min 2 min 0 W/m 16,7 km/h (3 Bft) 95,74 %
12.04.2016 19:24 11,0 C 10,0 C 8,9 C 90 % 15 lf 1008,6 hPa 0,0 l/m 0 min 2 min 0 W/m 16,7 km/h (3 Bft) 97,87 %
12.04.2016 19:26 11,0 C 10,0 C 9,4 C 90 % 15 lf 1008,7 hPa 0,2 l/m 0 min 2 min 0 W/m 16,7 km/h (3 Bft) 97,83 %
12.04.2016 19:28 11,0 C 10,0 C 8,9 C 90 % 15 lf 1008,7 hPa 0,0 l/m 0 min 2 min 0 W/m 16,7 km/h (3 Bft) 95,74 %
12.04.2016 19:30 10,9 C 10,0 C 8,9 C 90 % 15 lf 1008,7 hPa 0,2 l/m 0 min 2 min 0 W/m 18,8 km/h (3 Bft) 93,62 %
12.04.2016 19:32 10,9 C 10,0 C 8,9 C 90 % 15 lf 1008,7 hPa 0,2 l/m 0 min 2 min 0 W/m 12,6 km/h (3 Bft) 95,74 %
12.04.2016 19:34 10,9 C 10,0 C 8,9 C 91 % 15 lf 1008,7 hPa 0,0 l/m 0 min 2 min 0 W/m 16,7 km/h (3 Bft) 97,87 %
12.04.2016 19:36 10,9 C 10,0 C 8,9 C 91 % 15 lf 1008,6 hPa 0,2 l/m 0 min 2 min 0 W/m 14,6 km/h (3 Bft) 93,62 %
12.04.2016 19:38 10,8 C 10,0 C 8,9 C 91 % 15 lf 1008,5 hPa 0,0 l/m 0 min 2 min 0 W/m 12,6 km/h (3 Bft) 97,83 %
12.04.2016 19:40 10,8 C 10,0 C 8,9 C 91 % 15 lf 1008,5 hPa 0,2 l/m 0 min 2 min 0 W/m 12,6 km/h (3 Bft) 95,74 %
12.04.2016 19:42 10,8 C 10,0 C 8,9 C 91 % 15 lf 1008,5 hPa 0,4 l/m 0 min 2 min 0 W/m 16,7 km/h (3 Bft) 97,87 %
12.04.2016 19:44 10,8 C 10,0 C 8,9 C 91 % 15 lf 1008,4 hPa 0,2 l/m 0 min 2 min 0 W/m 12,6 km/h (3 Bft) 97,87 %
12.04.2016 19:46 10,7 C 10,0 C 8,9 C 91 % 15 lf 1008,3 hPa 0,2 l/m 0 min 2 min 0 W/m 10,5 km/h (2 Bft) 97,87 %
12.04.2016 19:48 10,7 C 10,0 C 8,9 C 91 % 15 lf 1008,3 hPa 0,2 l/m 0 min 2 min 0 W/m 14,6 km/h (3 Bft) 97,87 %
12.04.2016 19:50 10,7 C 10,0 C 8,9 C 91 % 15 lf 1008,3 hPa 0,2 l/m 0 min 2 min 0 W/m 12,6 km/h (3 Bft) 97,83 %
12.04.2016 19:52 10,7 C 10,0 C 8,9 C 92 % 15 lf 1008,2 hPa 0,4 l/m 0 min 2 min 0 W/m 10,5 km/h (2 Bft) 97,87 %
12.04.2016 19:54 10,7 C 10,0 C 8,9 C 92 % 15 lf 1008,2 hPa 0,2 l/m 0 min 2 min 0 W/m 14,6 km/h (3 Bft) 95,74 %
12.04.2016 19:56 10,6 C 10,0 C 8,9 C 92 % 15 lf 1008,2 hPa 0,0 l/m 0 min 2 min 0 W/m 12,6 km/h (3 Bft) 97,87 %
12.04.2016 19:58 10,6 C 10,0 C 8,9 C 92 % 15 lf 1008,2 hPa 0,0 l/m 0 min 2 min 0 W/m 14,6 km/h (3 Bft) 95,74 %
12.04.2016 20:00 10,6 C 10,0 C 8,9 C 92 % 15 lf 1008,1 hPa 0,2 l/m 0 min 2 min 0 W/m 10,5 km/h (2 Bft) 95,74 %
12.04.2016 20:02 10,6 C 10,0 C 8,9 C 92 % 15 lf 1007,9 hPa 0,0 l/m 0 min 2 min 0 W/m 12,6 km/h (3 Bft) 97,83 %
12.04.2016 20:04 10,6 C 9,4 C 8,9 C 92 % 15 lf 1007,9 hPa 0,0 l/m 0 min 2 min 0 W/m 14,6 km/h (3 Bft) 95,74 %
12.04.2016 20:06 10,5 C 9,4 C 8,9 C 92 % 15 lf 1007,9 hPa 0,0 l/m 0 min 2 min 0 W/m 10,5 km/h (2 Bft) 95,74 %
12.04.2016 20:08 10,5 C 9,4 C 8,9 C 92 % 15 lf 1007,8 hPa 0,2 l/m 0 min 2 min 0 W/m 10,5 km/h (2 Bft) 91,49 %
12.04.2016 20:10 10,4 C 9,4 C 8,9 C 92 % 15 lf 1007,6 hPa 0,0 l/m 0 min 2 min 0 W/m 12,6 km/h (3 Bft) 97,87 %
12.04.2016 20:12 10,4 C 9,4 C 8,9 C 92 % 15 lf 1007,6 hPa 0,0 l/m 0 min 2 min 0 W/m 8,4 km/h (2 Bft) 95,74 %
12.04.2016 20:14 10,4 C 9,4 C 8,9 C 93 % 15 lf 1007,8 hPa 0,0 l/m 0 min 2 min 0 W/m 10,5 km/h (2 Bft) 93,48 %
12.04.2016 20:16 10,4 C 9,4 C 8,9 C 93 % 15 lf 1007,8 hPa 0,0 l/m 0 min 2 min 0 W/m 10,5 km/h (2 Bft) 95,74 %
12.04.2016 20:18 10,4 C 9,4 C 8,9 C 93 % 15 lf 1007,9 hPa 0,0 l/m 0 min 0 min 0 W/m 8,4 km/h (2 Bft) 95,74 %
12.04.2016 20:20 10,3 C 9,4 C 8,9 C 93 % 15 lf 1007,9 hPa 0,0 l/m 0 min 0 min 0 W/m 4,2 km/h (1 Bft) 93,62 %
12.04.2016 20:22 10,3 C 9,4 C 8,9 C 93 % 15 lf 1007,8 hPa 0,0 l/m 0 min 0 min 0 W/m 6,3 km/h (2 Bft) 97,87 %
12.04.2016 20:24 10,3 C 9,4 C 8,9 C 93 % 15 lf 1007,9 hPa 0,0 l/m 0 min 0 min 0 W/m 6,3 km/h (2 Bft) 97,83 %
12.04.2016 20:26 10,3 C 9,4 C 8,9 C 93 % 15 lf 1007,7 hPa 0,0 l/m 0 min 0 min 0 W/m 6,3 km/h (2 Bft) 97,87 %
12.04.2016 20:28 10,3 C 9,4 C 8,9 C 93 % 15 lf 1007,8 hPa 0,0 l/m 0 min 0 min 0 W/m 10,5 km/h (2 Bft) 97,87 %
12.04.2016 20:30 10,3 C 9,4 C 8,3 C 93 % 15 lf 1007,8 hPa 0,0 l/m 0 min 0 min 0 W/m 8,4 km/h (2 Bft) 97,87 %
12.04.2016 20:32 10,3 C 9,4 C 8,9 C 93 % 15 lf 1008,0 hPa 0,0 l/m 0 min 0 min 0 W/m 6,3 km/h (2 Bft) 97,87 %
12.04.2016 20:34 10,2 C 9,4 C 8,3 C 93 % 15 lf 1007,9 hPa 0,0 l/m 0 min 0 min 0 W/m 6,3 km/h (2 Bft) 97,87 %
12.04.2016 20:36 10,2 C 9,4 C 8,3 C 93 % 15 lf 1007,9 hPa 0,0 l/m 0 min 0 min 0 W/m 6,3 km/h (2 Bft) 97,83 %
12.04.2016 20:38 10,2 C 9,4 C 8,9 C 93 % 15 lf 1007,9 hPa 0,0 l/m 0 min 0 min 0 W/m 4,2 km/h (1 Bft) 97,87 %
12.04.2016 20:40 10,2 C 9,4 C 8,9 C 93 % 15 lf 1007,8 hPa 0,0 l/m 0 min 0 min 0 W/m 6,3 km/h (2 Bft) 97,87 %
12.04.2016 20:42 10,2 C 9,4 C 8,9 C 93 % 15 lf 1007,9 hPa 0,0 l/m 0 min 0 min 0 W/m 8,4 km/h (2 Bft) 97,87 %
12.04.2016 20:44 10,2 C 9,4 C 8,3 C 93 % 15 lf 1007,8 hPa 0,0 l/m 0 min 0 min 0 W/m 8,4 km/h (2 Bft) 100,00 %
12.04.2016 20:46 10,2 C 9,4 C 8,3 C 93 % 15 lf 1007,8 hPa 0,0 l/m 0 min 0 min 0 W/m 6,3 km/h (2 Bft) 95,74 %
12.04.2016 20:48 10,2 C 9,4 C 8,9 C 93 % 15 lf 1007,8 hPa 0,0 l/m 0 min 0 min 0 W/m 6,3 km/h (2 Bft) 100,00 %
12.04.2016 20:50 10,1 C 9,4 C 8,9 C 93 % 15 lf 1007,8 hPa 0,0 l/m 0 min 0 min 0 W/m 4,2 km/h (1 Bft) 95,74 %
12.04.2016 20:52 10,1 C 9,4 C 8,9 C 93 % 15 lf 1007,8 hPa 0,0 l/m 0 min 0 min 0 W/m 4,2 km/h (1 Bft) 100,00 %
12.04.2016 20:54 10,1 C 9,4 C 8,9 C 94 % 15 lf 1007,9 hPa 0,0 l/m 0 min 0 min 0 W/m 6,3 km/h (2 Bft) 97,87 %
12.04.2016 20:56 10,1 C 9,4 C 8,9 C 93 % 15 lf 1007,9 hPa 0,0 l/m 0 min 0 min 0 W/m 4,2 km/h (1 Bft) 97,87 %
12.04.2016 20:58 10,1 C 9,4 C 8,9 C 93 % 15 lf 1007,9 hPa 0,0 l/m 0 min 0 min 0 W/m 4,2 km/h (1 Bft) 100,00 %
12.04.2016 21:00 10,1 C 9,4 C 8,9 C 93 % 15 lf 1007,9 hPa 0,0 l/m 0 min 0 min 0 W/m 4,2 km/h (1 Bft) 97,83 %
12.04.2016 21:02 10,1 C 9,4 C 8,9 C 93 % 15 lf 1007,9 hPa 0,0 l/m 0 min 0 min 0 W/m 4,2 km/h (1 Bft) 97,87 %
12.04.2016 21:04 10,1 C 9,4 C 8,9 C 93 % 15 lf 1007,8 hPa 0,0 l/m 0 min 0 min 0 W/m 6,3 km/h (2 Bft) 100,00 %
12.04.2016 21:06 10,1 C 9,4 C 8,9 C 94 % 15 lf 1007,9 hPa 0,0 l/m 0 min 0 min 0 W/m 6,3 km/h (2 Bft) 100,00 %
12.04.2016 21:08 10,1 C 9,4 C 8,9 C 94 % 15 lf 1007,9 hPa 0,0 l/m 0 min 0 min 0 W/m 4,2 km/h (1 Bft) 100,00 %
12.04.2016 21:10 10,1 C 9,4 C 8,9 C 94 % 15 lf 1007,9 hPa 0,0 l/m 0 min 0 min 0 W/m 6,3 km/h (2 Bft) 100,00 %
12.04.2016 21:12 10,1 C 9,4 C 8,9 C 94 % 15 lf 1008,0 hPa 0,0 l/m 0 min 0 min 0 W/m 4,2 km/h (1 Bft) 97,83 %
12.04.2016 21:14 10,1 C 9,4 C 8,9 C 94 % 15 lf 1008,0 hPa 0,0 l/m 0 min 0 min 0 W/m 4,2 km/h (1 Bft) 97,87 %
12.04.2016 21:16 10,1 C 9,4 C 8,9 C 94 % 15 lf 1007,9 hPa 0,0 l/m 0 min 0 min 0 W/m 4,2 km/h (1 Bft) 97,87 %
12.04.2016 21:18 10,1 C 9,4 C 8,9 C 94 % 15 lf 1008,0 hPa 0,0 l/m 0 min 0 min 0 W/m 6,3 km/h (2 Bft) 95,74 %
12.04.2016 21:20 10,1 C 9,4 C 8,9 C 94 % 15 lf 1008,0 hPa 0,0 l/m 0 min 0 min 0 W/m 4,2 km/h (1 Bft) 95,74 %
12.04.2016 21:22 10,1 C 9,4 C 8,9 C 94 % 15 lf 1008,1 hPa 0,0 l/m 0 min 0 min 0 W/m 4,2 km/h (1 Bft) 100,00 %
12.04.2016 21:24 10,1 C 9,4 C 8,9 C 94 % 15 lf 1008,2 hPa 0,0 l/m 0 min 0 min 0 W/m 6,3 km/h (2 Bft) 100,00 %
12.04.2016 21:26 10,1 C 9,4 C 8,9 C 94 % 15 lf 1008,3 hPa 0,0 l/m 0 min 0 min 0 W/m 4,2 km/h (1 Bft) 95,74 %
12.04.2016 21:28 10,1 C 9,4 C 8,9 C 94 % 15 lf 1008,1 hPa 0,0 l/m 0 min 0 min 0 W/m 6,3 km/h (2 Bft) 93,62 %
12.04.2016 21:30 10,1 C 9,4 C 8,9 C 94 % 15 lf 1008,2 hPa 0,0 l/m 0 min 0 min 0 W/m 6,3 km/h (2 Bft) 97,87 %
12.04.2016 21:32 10,1 C 9,4 C 8,9 C 94 % 15 lf 1008,2 hPa 0,0 l/m 0 min 0 min 0 W/m 6,3 km/h (2 Bft) 95,74 %
12.04.2016 21:34 10,1 C 9,4 C 8,9 C 94 % 15 lf 1008,2 hPa 0,0 l/m 0 min 0 min 0 W/m 4,2 km/h (1 Bft) 95,74 %
12.04.2016 21:36 10,1 C 9,4 C 8,9 C 94 % 15 lf 1008,2 hPa 0,0 l/m 0 min 0 min 0 W/m 4,2 km/h (1 Bft) 97,83 %
12.04.2016 21:38 10,1 C 9,4 C 8,9 C 94 % 15 lf 1008,2 hPa 0,0 l/m 0 min 0 min 0 W/m 2,1 km/h (1 Bft) 95,74 %
12.04.2016 21:40 10,1 C 9,4 C 8,9 C 94 % 15 lf 1008,2 hPa 0,0 l/m 0 min 0 min 0 W/m 4,2 km/h (1 Bft) 97,87 %
12.04.2016 21:42 10,1 C 9,4 C 8,9 C 94 % 15 lf 1008,3 hPa 0,0 l/m 0 min 0 min 0 W/m 2,1 km/h (1 Bft) 97,87 %
12.04.2016 21:44 10,1 C 9,4 C 8,9 C 94 % 15 lf 1008,3 hPa 0,0 l/m 0 min 0 min 0 W/m 4,2 km/h (1 Bft) 95,74 %
12.04.2016 21:46 10,1 C 9,4 C 8,9 C 94 % 15 lf 1008,4 hPa 0,0 l/m 0 min 0 min 0 W/m 6,3 km/h (2 Bft) 97,83 %
12.04.2016 21:48 10,1 C 9,4 C 8,9 C 94 % 15 lf 1008,3 hPa 0,0 l/m 0 min 0 min 0 W/m 6,3 km/h (2 Bft) 97,87 %
12.04.2016 21:50 10,1 C 9,4 C 8,9 C 94 % 15 lf 1008,3 hPa 0,0 l/m 0 min 0 min 0 W/m 4,2 km/h (1 Bft) 97,87 %
12.04.2016 21:52 10,1 C 9,4 C 8,9 C 94 % 15 lf 1008,3 hPa 0,0 l/m 0 min 0 min 0 W/m 4,2 km/h (1 Bft) 95,74 %
12.04.2016 21:54 10,1 C 9,4 C 8,9 C 94 % 15 lf 1008,4 hPa 0,0 l/m 0 min 0 min 0 W/m 4,2 km/h (1 Bft) 97,87 %
12.04.2016 21:56 10,0 C 9,4 C 8,9 C 94 % 15 lf 1008,4 hPa 0,0 l/m 0 min 0 min 0 W/m 4,2 km/h (1 Bft) 95,74 %
12.04.2016 21:58 10,0 C 9,4 C 8,9 C 94 % 15 lf 1008,4 hPa 0,0 l/m 0 min 0 min 0 W/m 4,2 km/h (1 Bft) 93,48 %
12.04.2016 22:00 10,0 C 9,4 C 8,9 C 94 % 15 lf 1008,4 hPa 0,0 l/m 0 min 0 min 0 W/m 4,2 km/h (1 Bft) 93,62 %
12.04.2016 22:02 10,0 C 9,4 C 8,9 C 94 % 15 lf 1008,4 hPa 0,0 l/m 0 min 0 min 0 W/m 4,2 km/h (1 Bft) 93,62 %
12.04.2016 22:04 10,0 C 9,4 C 8,9 C 94 % 15 lf 1008,4 hPa 0,0 l/m 0 min 0 min 0 W/m 2,1 km/h (1 Bft) 91,49 %
12.04.2016 22:06 10,0 C 9,4 C 8,9 C 95 % 15 lf 1008,4 hPa 0,0 l/m 0 min 0 min 0 W/m 4,2 km/h (1 Bft) 91,49 %
12.04.2016 22:08 10,0 C 9,4 C 8,9 C 95 % 15 lf 1008,4 hPa 0,0 l/m 0 min 0 min 0 W/m 4,2 km/h (1 Bft) 91,49 %
12.04.2016 22:10 10,0 C 9,4 C 8,9 C 95 % 15 lf 1008,3 hPa 0,0 l/m 0 min 0 min 0 W/m 2,1 km/h (1 Bft) 93,48 %
12.04.2016 22:12 10,0 C 9,4 C 8,3 C 95 % 15 lf 1008,3 hPa 0,0 l/m 0 min 0 min 0 W/m 2,1 km/h (1 Bft) 91,49 %
12.04.2016 22:14 9,9 C 9,4 C 8,3 C 95 % 15 lf 1008,3 hPa 0,0 l/m 0 min 0 min 0 W/m 2,1 km/h (1 Bft) 91,49 %
12.04.2016 22:16 9,9 C 9,4 C 8,3 C 95 % 15 lf 1008,3 hPa 0,0 l/m 0 min 0 min 0 W/m 0,0 km/h (0 Bft) 91,49 %
12.04.2016 22:18 9,9 C 9,4 C 8,3 C 95 % 15 lf 1008,3 hPa 0,0 l/m 0 min 0 min 0 W/m 2,1 km/h (1 Bft) 89,36 %
12.04.2016 22:20 9,9 C 9,4 C 8,3 C 95 % 15 lf 1008,2 hPa 0,0 l/m 0 min 0 min 0 W/m 2,1 km/h (1 Bft) 89,36 %
12.04.2016 22:22 9,9 C 9,4 C 8,3 C 94 % 15 lf 1008,2 hPa 0,0 l/m 0 min 0 min 0 W/m 2,1 km/h (1 Bft) 95,65 %
12.04.2016 22:24 9,9 C 9,4 C 8,3 C 94 % 15 lf 1008,1 hPa 0,0 l/m 0 min 0 min 0 W/m 2,1 km/h (1 Bft) 89,36 %
12.04.2016 22:26 9,9 C 9,4 C 8,3 C 94 % 15 lf 1008,1 hPa 0,0 l/m 0 min 0 min 0 W/m 4,2 km/h (1 Bft) 93,62 %
12.04.2016 22:28 9,9 C 9,4 C 8,3 C 94 % 15 lf 1008,0 hPa 0,0 l/m 0 min 0 min 0 W/m 4,2 km/h (1 Bft) 91,49 %
12.04.2016 22:30 9,9 C 9,4 C 8,3 C 94 % 15 lf 1008,0 hPa 0,0 l/m 0 min 0 min 0 W/m 4,2 km/h (1 Bft) 91,49 %
12.04.2016 22:32 9,9 C 9,4 C 8,3 C 94 % 15 lf 1008,1 hPa 0,0 l/m 0 min 0 min 0 W/m 4,2 km/h (1 Bft) 93,62 %
12.04.2016 22:34 9,8 C 9,4 C 8,3 C 94 % 15 lf 1008,1 hPa 0,0 l/m 0 min 0 min 0 W/m 2,1 km/h (1 Bft) 93,48 %
12.04.2016 22:36 9,8 C 9,4 C 8,3 C 94 % 15 lf 1008,0 hPa 0,0 l/m 0 min 0 min 0 W/m 4,2 km/h (1 Bft) 91,49 %
12.04.2016 22:38 9,8 C 9,4 C 8,3 C 94 % 15 lf 1008,1 hPa 0,0 l/m 0 min 0 min 0 W/m 6,3 km/h (2 Bft) 93,62 %
12.04.2016 22:40 9,8 C 9,4 C 8,3 C 95 % 15 lf 1008,1 hPa 0,0 l/m 0 min 0 min 0 W/m 4,2 km/h (1 Bft) 93,62 %
12.04.2016 22:42 9,8 C 9,4 C 8,3 C 95 % 15 lf 1008,1 hPa 0,0 l/m 0 min 0 min 0 W/m 4,2 km/h (1 Bft) 93,62 %
12.04.2016 22:44 9,8 C 9,4 C 8,3 C 95 % 15 lf 1008,1 hPa 0,0 l/m 0 min 0 min 0 W/m 4,2 km/h (1 Bft) 93,62 %
12.04.2016 22:46 9,8 C 9,4 C 8,3 C 95 % 15 lf 1008,0 hPa 0,0 l/m 0 min 0 min 0 W/m 4,2 km/h (1 Bft) 95,65 %
12.04.2016 22:48 9,8 C 9,4 C 8,3 C 95 % 15 lf 1008,1 hPa 0,0 l/m 0 min 0 min 0 W/m 4,2 km/h (1 Bft) 95,74 %
12.04.2016 22:50 9,8 C 9,4 C 8,3 C 95 % 15 lf 1008,1 hPa 0,0 l/m 0 min 0 min 0 W/m 6,3 km/h (2 Bft) 95,74 %
12.04.2016 22:52 9,8 C 9,4 C 8,3 C 95 % 15 lf 1008,1 hPa 0,0 l/m 0 min 0 min 0 W/m 4,2 km/h (1 Bft) 95,74 %
12.04.2016 22:54 9,8 C 9,4 C 8,3 C 95 % 15 lf 1008,2 hPa 0,0 l/m 0 min 0 min 0 W/m 4,2 km/h (1 Bft) 93,62 %
12.04.2016 22:56 9,8 C 9,4 C 8,3 C 95 % 15 lf 1008,2 hPa 0,0 l/m 0 min 0 min 0 W/m 4,2 km/h (1 Bft) 93,62 %
12.04.2016 22:58 9,8 C 9,4 C 8,3 C 95 % 15 lf 1008,2 hPa 0,0 l/m 0 min 0 min 0 W/m 6,3 km/h (2 Bft) 95,65 %
12.04.2016 23:00 9,8 C 9,4 C 8,3 C 95 % 15 lf 1008,2 hPa 0,0 l/m 0 min 0 min 0 W/m 4,2 km/h (1 Bft) 95,74 %
12.04.2016 23:02 9,8 C 9,4 C 8,3 C 95 % 15 lf 1008,2 hPa 0,0 l/m 0 min 0 min 0 W/m 6,3 km/h (2 Bft) 97,87 %
12.04.2016 23:04 9,8 C 9,4 C 8,3 C 95 % 15 lf 1008,2 hPa 0,0 l/m 0 min 0 min 0 W/m 4,2 km/h (1 Bft) 97,87 %
12.04.2016 23:06 9,7 C 9,4 C 8,3 C 95 % 15 lf 1008,2 hPa 0,0 l/m 0 min 0 min 0 W/m 4,2 km/h (1 Bft) 97,87 %
12.04.2016 23:08 9,7 C 9,4 C 8,3 C 95 % 15 lf 1008,2 hPa 0,0 l/m 0 min 0 min 0 W/m 4,2 km/h (1 Bft) 97,83 %
12.04.2016 23:10 9,7 C 9,4 C 8,3 C 95 % 15 lf 1008,3 hPa 0,0 l/m 0 min 0 min 0 W/m 4,2 km/h (1 Bft) 100,00 %
12.04.2016 23:12 9,7 C 9,4 C 8,3 C 95 % 15 lf 1008,3 hPa 0,0 l/m 0 min 0 min 0 W/m 2,1 km/h (1 Bft) 97,87 %
12.04.2016 23:14 9,7 C 8,9 C 8,3 C 95 % 15 lf 1008,3 hPa 0,0 l/m 0 min 0 min 0 W/m 0,0 km/h (0 Bft) 100,00 %
12.04.2016 23:16 9,7 C 8,9 C 8,3 C 95 % 15 lf 1008,3 hPa 0,0 l/m 0 min 0 min 0 W/m 0,0 km/h (0 Bft) 95,74 %
12.04.2016 23:18 9,7 C 9,4 C 8,3 C 95 % 15 lf 1008,4 hPa 0,0 l/m 0 min 0 min 0 W/m 0,0 km/h (0 Bft) 100,00 %
12.04.2016 23:20 9,7 C 8,9 C 8,3 C 95 % 15 lf 1008,3 hPa 0,0 l/m 0 min 0 min 0 W/m 0,0 km/h (0 Bft) 97,83 %
12.04.2016 23:22 9,7 C 9,4 C 8,3 C 95 % 15 lf 1008,3 hPa 0,0 l/m 0 min 0 min 0 W/m 0,0 km/h (0 Bft) 100,00 %
12.04.2016 23:24 9,7 C 9,4 C 8,3 C 95 % 15 lf 1008,3 hPa 0,0 l/m 0 min 0 min 0 W/m 0,0 km/h (0 Bft) 97,87 %
12.04.2016 23:26 9,7 C 9,4 C 8,3 C 95 % 15 lf 1008,3 hPa 0,0 l/m 0 min 0 min 0 W/m 0,0 km/h (0 Bft) 100,00 %
12.04.2016 23:28 9,7 C 9,4 C 8,3 C 95 % 15 lf 1008,3 hPa 0,0 l/m 0 min 0 min 0 W/m 0,0 km/h (0 Bft) 97,87 %
12.04.2016 23:30 9,7 C 9,4 C 8,3 C 95 % 15 lf 1008,3 hPa 0,0 l/m 0 min 0 min 0 W/m 0,0 km/h (0 Bft) 100,00 %
12.04.2016 23:32 9,7 C 9,4 C 8,3 C 95 % 15 lf 1008,3 hPa 0,0 l/m 0 min 0 min 0 W/m 0,0 km/h (0 Bft) 100,00 %
12.04.2016 23:34 9,7 C 9,4 C 8,3 C 95 % 15 lf 1008,3 hPa 0,0 l/m 0 min 0 min 0 W/m 0,0 km/h (0 Bft) 97,87 %
12.04.2016 23:36 9,6 C 9,4 C 8,3 C 95 % 15 lf 1008,3 hPa 0,0 l/m 0 min 0 min 0 W/m 0,0 km/h (0 Bft) 97,87 %
12.04.2016 23:38 9,6 C 9,4 C 8,3 C 95 % 15 lf 1008,3 hPa 0,0 l/m 0 min 0 min 0 W/m 0,0 km/h (0 Bft) 100,00 %
12.04.2016 23:40 9,6 C 9,4 C 8,3 C 95 % 15 lf 1008,3 hPa 0,0 l/m 0 min 0 min 0 W/m 0,0 km/h (0 Bft) 100,00 %
12.04.2016 23:42 9,6 C 9,4 C 7,8 C 95 % 15 lf 1008,3 hPa 0,0 l/m 0 min 0 min 0 W/m 0,0 km/h (0 Bft) 100,00 %
12.04.2016 23:44 9,6 C 9,4 C 7,8 C 95 % 15 lf 1008,3 hPa 0,0 l/m 0 min 0 min 0 W/m 0,0 km/h (0 Bft) 97,83 %
12.04.2016 23:46 9,6 C 9,4 C 7,8 C 95 % 15 lf 1008,3 hPa 0,0 l/m 0 min 0 min 0 W/m 0,0 km/h (0 Bft) 100,00 %
12.04.2016 23:48 9,6 C 9,4 C 7,8 C 95 % 15 lf 1008,3 hPa 0,0 l/m 0 min 0 min 0 W/m 0,0 km/h (0 Bft) 97,87 %
12.04.2016 23:50 9,6 C 9,4 C 7,8 C 95 % 15 lf 1008,2 hPa 0,0 l/m 0 min 0 min 0 W/m 0,0 km/h (0 Bft) 97,87 %
12.04.2016 23:52 9,6 C 8,9 C 7,8 C 95 % 15 lf 1008,3 hPa 0,0 l/m 0 min 0 min 0 W/m 0,0 km/h (0 Bft) 100,00 %
12.04.2016 23:54 9,6 C 8,9 C 7,8 C 95 % 15 lf 1008,3 hPa 0,0 l/m 0 min 0 min 0 W/m 0,0 km/h (0 Bft) 97,83 %
12.04.2016 23:56 9,6 C 9,4 C 7,8 C 95 % 15 lf 1008,2 hPa 0,0 l/m 0 min 0 min 0 W/m 0,0 km/h (0 Bft) 93,62 %
12.04.2016 23:58 9,6 C 8,9 C 7,8 C 95 % 15 lf 1008,2 hPa 0,0 l/m 0 min 0 min 0 W/m 0,0 km/h (0 Bft) 97,87 %
_ Min-Zeit 07:36 05:48 05:44 15:50 00:00 17:54 - - - - 00:42 05:04
Minimum _ 8,3 C 7,8 C 6,1 C 40 % 0 lf 1006,2 hPa - - - - 0,0 km/h (0 Bft) 87,23 %
_ Max-Zeit 15:38 12:20 11:48 22:06 00:28 01:52 19:42 07:28 00:00 14:04 18:12 02:14
Maximum _ 21,2 C 29,4 C 24,4 C 95 % 15 lf 1009,6 hPa 0,4 l/m 2 min 2 min 868 W/m 56,5 km/h
SW (7 Bft)
100,00 %
Durchschnitt _ 13,6 C 15,2 C 12,3 C 75 % 6 lf 1008,4 hPa #4,6 l/m #8:03 h #3:50 h 402 W/m 10,7 km/h (2 Bft) 96,15 %
© 2016 W. Hausmann